GFSNGP_500_temp_000.txt.gz
Temp
-10 -10 -11 -11 -11 -10 -10 -9 -10 -8 -9 -9 -9 -7 -5 -7 -8 -8 -8 -8 -8 -8 -8 -8 -8 -8 -7 -8 -8 -8 -9 -8 -9 -9 -9 -9 -10 -9 -9 -9 -10 -10 -9 -9
-12 -11 -12 -11 -11 -11 -11 -8 -9 -10 -9 -9 -9 -7 -7 -7 -8 -8 -8 -8 -8 -8 -8 -8 -8 -8 -8 -8 -8 -8 -8 -8 -8 -9 -9 -10 -10 -9 -10 -10 -9 -10 -10 -9
-12 -11 -11 -11 -11 -11 -11 -10 -9 -9 -7 -8 -8 -8 -6 -7 -7 -8 -8 -8 -8 -8 -8 -8 -8 -8 -8 -8 -7 -8 -9 -8 -8 -8 -9 -9 -9 -10 -9 -9 -9 -9 -9 -9
-12 -11 -12 -10 -11 -11 -11 -10 -9 -8 -9 -8 -8 -7 -7 -7 -8 -8 -8 -8 -8 -8 -8 -8 -8 -8 -8 -8 -8 -8 -8 -8 -9 -9 -9 -9 -9 -9 -10 -10 -10 -10 -10 -10
-12 -12 -12 -10 -11 -11 -11 -11 -11 -10 -9 -9 -7 -7 -7 -7 -8 -8 -8 -8 -8 -8 -8 -8 -8 -8 -8 -8 -8 -8 -9 -9 -9 -9 -9 -9 -9 -10 -10 -10 -10 -10 -10 -10
-13 -13 -12 -12 -11 -11 -11 -10 -10 -11 -9 -8 -7 -7 -6 -8 -8 -8 -8 -8 -8 -8 -8 -9 -9 -9 -9 -8 -8 -8 -9 -9 -9 -9 -9 -9 -10 -10 -10 -10 -10 -10 -10 -10
-13 -13 -12 -10 -11 -11 -11 -10 -10 -9 -9 -9 -8 -7 -8 -8 -8 -8 -8 -8 -8 -8 -8 -9 -9 -9 -9 -8 -8 -9 -9 -9 -9 -9 -10 -9 -10 -10 -11 -10 -11 -11 -10 -10
-13 -13 -12 -10 -11 -11 -10 -10 -10 -10 -10 -10 -9 -8 -8 -8 -8 -8 -8 -8 -8 -8 -8 -8 -9 -9 -9 -9 -9 -9 -9 -9 -10 -10 -10 -10 -10 -10 -10 -10 -10 -11 -11 -11
-12 -12 -11 -11 -11 -11 -10 -10 -10 -10 -10 -9 -9 -9 -8 -8 -8 -8 -8 -8 -8 -8 -8 -9 -9 -9 -9 -9 -9 -9 -9 -10 -10 -10 -10 -10 -10 -10 -10 -10 -10 -11 -11 -11
-12 -12 -11 -11 -11 -11 -11 -10 -10 -10 -10 -9 -9 -9 -9 -9 -8 -8 -8 -8 -8 -8 -9 -9 -9 -9 -9 -9 -9 -9 -10 -10 -10 -10 -9 -9 -10 -10 -10 -10 -10 -10 -11 -11
-12 -11 -12 -11 -11 -11 -11 -10 -10 -10 -10 -10 -9 -9 -9 -9 -10 -9 -9 -9 -9 -9 -10 -9 -9 -10 -10 -9 -9 -10 -10 -10 -10 -9 -9 -10 -11 -11 -10 -10 -11 -11 -11 -11
-12 -12 -11 -12 -12 -11 -11 -11 -11 -10 -10 -10 -10 -10 -10 -10 -9 -10 -10 -10 -10 -10 -10 -10 -9 -9 -9 -9 -10 -9 -10 -10 -10 -10 -10 -10 -11 -11 -11 -11 -12 -12 -12 -12
-12 -12 -11 -12 -11 -11 -11 -11 -11 -11 -10 -11 -10 -10 -10 -10 -10 -11 -10 -10 -11 -11 -10 -9 -9 -9 -9 -9 -9 -9 -9 -10 -10 -10 -10 -10 -10 -11 -12 -12 -12 -12 -12 -12
-13 -12 -12 -12 -12 -11 -12 -11 -11 -11 -10 -10 -10 -10 -10 -11 -10 -10 -10 -10 -10 -11 -10 -10 -9 -9 -9 -9 -10 -10 -10 -10 -10 -10 -10 -11 -11 -11 -11 -12 -12 -13 -13 -14
-13 -12 -12 -12 -10 -11 -10 -11 -10 -10 -11 -11 -10 -10 -10 -10 -10 -10 -10 -11 -10 -10 -10 -9 -9 -10 -10 -10 -10 -11 -11 -11 -11 -11 -10 -11 -11 -12 -12 -12 -13 -14 -14 -14
-12 -11 -12 -12 -12 -12 -12 -11 -11 -11 -11 -10 -11 -11 -11 -10 -10 -11 -11 -11 -11 -11 -10 -10 -11 -11 -11 -11 -12 -11 -11 -11 -11 -11 -11 -12 -12 -12 -13 -14 -14 -14 -14 -14
-13 -13 -13 -12 -12 -12 -12 -12 -12 -12 -12 -11 -12 -11 -11 -11 -11 -11 -11 -10 -11 -11 -11 -11 -11 -11 -11 -11 -11 -11 -11 -12 -12 -12 -12 -12 -13 -14 -14 -14 -14 -14 -15 -15
-13 -13 -13 -12 -12 -12 -13 -14 -15 -14 -13 -13 -13 -13 -13 -12 -12 -12 -11 -11 -11 -11 -12 -12 -12 -11 -11 -11 -11 -12 -12 -12 -12 -12 -13 -14 -14 -14 -14 -15 -15 -15 -15 -15
-13 -13 -13 -13 -14 -14 -14 -14 -14 -13 -13 -13 -12 -12 -12 -12 -12 -12 -12 -11 -11 -11 -11 -12 -12 -12 -12 -12 -12 -12 -12 -12 -12 -14 -14 -14 -14 -15 -14 -15 -15 -15 -15 -16
-14 -15 -15 -15 -15 -15 -15 -15 -14 -14 -13 -13 -13 -12 -12 -12 -12 -11 -11 -11 -11 -12 -12 -12 -12 -12 -12 -12 -12 -13 -13 -13 -14 -14 -15 -15 -15 -14 -15 -15 -16 -16 -16 -16
-15 -15 -15 -15 -15 -14 -14 -15 -14 -14 -14 -13 -13 -13 -13 -13 -13 -13 -13 -12 -12 -12 -12 -12 -12 -12 -12 -13 -13 -13 -13 -14 -14 -15 -15 -14 -15 -15 -15 -15 -16 -16 -16 -16
-16 -17 -16 -16 -15 -15 -15 -14 -14 -14 -13 -13 -13 -13 -13 -13 -13 -13 -13 -12 -12 -12 -13 -13 -13 -13 -13 -13 -14 -14 -14 -14 -14 -15 -15 -15 -15 -15 -15 -15 -16 -16 -16 -16
-18 -17 -17 -16 -16 -16 -15 -15 -14 -14 -14 -14 -14 -14 -13 -13 -13 -13 -13 -13 -14 -14 -14 -13 -13 -14 -14 -14 -14 -14 -15 -15 -15 -15 -15 -15 -15 -16 -16 -16 -16 -16 -16 -16
-17 -17 -17 -17 -17 -16 -16 -15 -15 -15 -15 -14 -14 -14 -14 -14 -14 -14 -14 -14 -14 -14 -14 -14 -14 -14 -14 -15 -15 -15 -15 -15 -15 -15 -15 -16 -16 -16 -16 -16 -16 -16 -16 -16
-17 -17 -17 -17 -16 -16 -16 -15 -15 -15 -15 -15 -15 -15 -15 -15 -15 -15 -15 -15 -15 -15 -15 -15 -15 -15 -15 -15 -15 -15 -15 -16 -16 -16 -15 -15 -16 -16 -16 -16 -16 -16 -16 -16
-17 -17 -16 -16 -16 -16 -16 -16 -16 -16 -16 -16 -16 -16 -16 -16 -16 -16 -15 -15 -15 -16 -16 -16 -16 -16 -16 -16 -16 -16 -16 -16 -16 -16 -16 -15 -16 -16 -16 -16 -16 -16 -16 -16
-17 -17 -17 -17 -17 -17 -17 -17 -17 -17 -17 -17 -17 -16 -16 -16 -16 -16 -16 -16 -16 -16 -16 -16 -16 -16 -16 -16 -16 -16 -16 -16 -16 -16 -16 -16 -16 -16 -16 -16 -16 -16 -16 -16

GFSNGP_500_temp_003.txt.gz
Temp
-7 -10 -10 -9 -9 -9 -9 -9 -8 -8 -8 -7 -7 -8 -8 -8 -7 -7 -8 -7 -7 -7 -7 -7 -7 -7 -8 -7 -7 -7 -7 -6 -7 -7 -8 -8 -8 -8 -8 -9 -9 -9 -9 -9
-11 -10 -10 -10 -9 -9 -10 -9 -9 -9 -8 -8 -8 -8 -8 -8 -7 -7 -8 -8 -7 -7 -7 -7 -7 -7 -8 -8 -7 -7 -7 -6 -7 -7 -8 -8 -8 -8 -8 -9 -9 -9 -9 -9
-11 -11 -10 -10 -9 -10 -10 -9 -10 -9 -8 -9 -9 -8 -8 -8 -8 -7 -6 -7 -7 -7 -7 -7 -8 -8 -8 -7 -7 -7 -7 -7 -7 -8 -8 -8 -9 -9 -9 -9 -9 -10 -10 -10
-11 -11 -11 -8 -10 -10 -10 -10 -10 -10 -10 -9 -9 -8 -9 -9 -9 -7 -6 -7 -8 -7 -8 -7 -8 -8 -8 -7 -7 -7 -7 -8 -8 -8 -9 -9 -9 -9 -9 -9 -10 -10 -10 -10
-12 -11 -9 -10 -10 -10 -10 -10 -10 -10 -10 -10 -10 -9 -9 -8 -7 -8 -7 -8 -8 -8 -8 -8 -8 -8 -8 -7 -7 -7 -8 -8 -8 -8 -9 -9 -9 -9 -9 -10 -9 -9 -10 -10
-12 -12 -11 -10 -10 -10 -10 -9 -10 -10 -10 -10 -10 -9 -9 -9 -6 -6 -7 -8 -8 -8 -8 -8 -8 -8 -8 -8 -8 -8 -8 -9 -8 -9 -9 -9 -9 -9 -9 -10 -9 -9 -10 -10
-12 -12 -11 -11 -10 -10 -11 -11 -11 -10 -10 -11 -10 -10 -10 -9 -7 -8 -7 -8 -8 -8 -8 -8 -8 -8 -8 -8 -9 -9 -9 -9 -9 -9 -9 -9 -9 -10 -10 -10 -9 -9 -10 -10
-13 -13 -12 -11 -11 -11 -11 -10 -11 -11 -10 -10 -11 -11 -10 -9 -8 -8 -8 -8 -8 -8 -8 -8 -8 -8 -8 -9 -9 -9 -9 -9 -9 -9 -9 -9 -9 -10 -10 -10 -9 -10 -10 -10
-13 -13 -13 -13 -12 -10 -11 -11 -11 -11 -11 -11 -10 -9 -10 -10 -9 -9 -8 -8 -8 -8 -8 -8 -8 -8 -8 -8 -9 -9 -9 -9 -9 -9 -9 -9 -9 -9 -10 -10 -10 -9 -10 -11
-12 -12 -12 -12 -12 -11 -11 -11 -11 -11 -11 -11 -10 -10 -10 -10 -9 -9 -8 -8 -8 -8 -8 -8 -8 -8 -8 -8 -9 -9 -9 -9 -10 -9 -9 -9 -9 -10 -11 -10 -10 -10 -10 -11
-13 -12 -11 -11 -11 -11 -11 -10 -10 -11 -11 -10 -10 -10 -10 -9 -9 -9 -8 -8 -8 -8 -8 -8 -8 -8 -8 -8 -9 -10 -9 -10 -10 -10 -10 -10 -10 -10 -10 -10 -10 -10 -11 -11
-12 -11 -11 -11 -11 -11 -11 -10 -10 -11 -11 -10 -10 -10 -10 -9 -9 -9 -8 -8 -8 -8 -8 -8 -8 -8 -9 -9 -9 -9 -9 -10 -9 -10 -10 -10 -10 -10 -10 -11 -11 -11 -11 -11
-11 -12 -11 -11 -11 -11 -11 -11 -11 -11 -11 -11 -11 -10 -10 -10 -10 -10 -9 -10 -9 -9 -9 -9 -9 -9 -10 -10 -9 -9 -9 -10 -10 -10 -10 -10 -10 -10 -11 -11 -10 -11 -11 -11
-13 -12 -12 -12 -11 -11 -11 -10 -11 -11 -11 -11 -11 -10 -10 -10 -10 -9 -9 -9 -9 -9 -10 -9 -9 -9 -10 -10 -10 -9 -9 -10 -11 -10 -10 -10 -10 -11 -11 -11 -11 -11 -12 -12
-13 -12 -12 -11 -11 -12 -11 -12 -12 -11 -11 -11 -10 -10 -10 -10 -10 -10 -10 -10 -10 -10 -10 -9 -9 -10 -11 -10 -10 -10 -9 -10 -10 -11 -10 -10 -11 -11 -11 -11 -11 -11 -12 -13
-13 -12 -12 -12 -12 -12 -11 -11 -10 -11 -11 -11 -11 -10 -10 -10 -10 -10 -10 -10 -10 -9 -9 -10 -10 -11 -10 -10 -10 -10 -10 -11 -11 -11 -11 -11 -11 -12 -12 -12 -12 -11 -13 -13
-13 -12 -12 -12 -12 -12 -12 -11 -12 -11 -11 -11 -11 -11 -11 -11 -11 -10 -10 -10 -10 -10 -11 -11 -11 -10 -10 -11 -11 -10 -10 -11 -11 -11 -11 -12 -12 -12 -12 -12 -13 -13 -12 -13
-13 -13 -13 -13 -12 -12 -12 -12 -12 -12 -11 -12 -11 -11 -11 -10 -11 -11 -11 -11 -11 -11 -11 -11 -11 -11 -11 -11 -11 -10 -11 -11 -11 -11 -12 -12 -12 -13 -13 -13 -14 -14 -14 -14
-13 -13 -13 -14 -13 -13 -13 -12 -12 -12 -13 -13 -14 -14 -13 -12 -12 -12 -12 -12 -13 -12 -12 -12 -11 -11 -11 -11 -11 -11 -11 -12 -12 -12 -12 -13 -13 -13 -13 -14 -14 -14 -14 -14
-14 -14 -14 -14 -13 -14 -13 -12 -14 -16 -16 -16 -15 -14 -13 -13 -13 -13 -12 -12 -12 -12 -11 -11 -11 -11 -11 -11 -12 -12 -12 -12 -12 -12 -13 -13 -13 -13 -14 -14 -14 -14 -15 -15
-14 -14 -13 -13 -14 -15 -15 -15 -15 -16 -15 -14 -13 -13 -13 -12 -12 -12 -12 -12 -11 -12 -12 -12 -12 -12 -12 -12 -12 -12 -12 -13 -13 -13 -13 -14 -13 -13 -14 -14 -14 -15 -15 -15
-14 -15 -14 -15 -16 -16 -16 -16 -16 -16 -15 -15 -14 -13 -13 -13 -13 -13 -13 -13 -12 -13 -12 -12 -12 -13 -12 -13 -13 -13 -14 -13 -13 -13 -14 -14 -14 -14 -14 -14 -14 -15 -15 -15
-15 -15 -15 -15 -15 -15 -15 -15 -15 -15 -15 -14 -14 -14 -14 -14 -14 -14 -14 -13 -13 -13 -13 -13 -13 -13 -14 -14 -14 -14 -14 -14 -14 -14 -14 -14 -14 -15 -15 -15 -15 -15 -15 -15
-17 -17 -17 -17 -16 -16 -16 -16 -15 -15 -15 -14 -15 -15 -14 -14 -14 -14 -14 -14 -14 -14 -14 -14 -14 -14 -14 -14 -14 -14 -14 -14 -14 -14 -15 -15 -15 -15 -15 -15 -15 -15 -15 -15
-17 -17 -17 -17 -17 -17 -17 -16 -16 -16 -15 -15 -15 -15 -15 -15 -15 -15 -15 -15 -15 -15 -15 -15 -15 -15 -15 -15 -15 -15 -15 -15 -15 -15 -15 -15 -15 -15 -15 -15 -15 -15 -15 -15
-18 -17 -17 -17 -17 -17 -17 -17 -16 -16 -16 -15 -16 -15 -15 -15 -15 -16 -16 -15 -16 -16 -15 -15 -15 -16 -15 -16 -16 -15 -16 -16 -15 -16 -16 -16 -16 -16 -16 -15 -15 -15 -15 -15
-18 -18 -18 -17 -17 -17 -17 -17 -17 -17 -17 -17 -17 -17 -17 -16 -16 -16 -16 -16 -16 -16 -16 -16 -16 -16 -16 -16 -16 -16 -16 -16 -16 -16 -16 -16 -16 -16 -16 -16 -16 -16 -16 -16

GFSNGP_500_temp_006.txt.gz
Temp
-8 -8 -9 -8 -8 -9 -8 -5 -7 -5 -7 -7 -6 -7 -7 -7 -7 -7 -6 -7 -8 -8 -7 -7 -7 -7 -7 -7 -7 -6 -6 -6 -6 -7 -7 -7 -8 -8 -8 -8 -8 -8 -9 -9
-10 -9 -9 -9 -9 -8 -9 -7 -5 -7 -8 -7 -7 -6 -7 -8 -8 -7 -7 -6 -7 -8 -8 -7 -7 -7 -7 -7 -7 -6 -6 -6 -7 -7 -7 -8 -8 -9 -9 -9 -9 -9 -9 -9
-9 -8 -10 -9 -9 -9 -8 -9 -9 -9 -6 -8 -7 -8 -7 -8 -8 -8 -9 -7 -7 -7 -7 -7 -7 -7 -7 -7 -7 -7 -7 -7 -7 -7 -8 -8 -8 -8 -8 -9 -9 -9 -9 -10
-10 -11 -10 -7 -9 -9 -9 -9 -9 -9 -8 -8 -8 -8 -8 -7 -9 -8 -9 -8 -8 -7 -6 -6 -7 -7 -7 -8 -8 -8 -8 -7 -7 -7 -8 -8 -8 -8 -8 -8 -9 -9 -10 -10
-11 -11 -10 -10 -10 -9 -10 -10 -9 -9 -9 -9 -9 -8 -8 -8 -9 -9 -8 -9 -8 -7 -8 -7 -7 -7 -7 -8 -8 -8 -8 -8 -8 -8 -8 -8 -8 -8 -8 -9 -9 -9 -10 -10
-12 -11 -10 -9 -9 -9 -9 -8 -9 -10 -10 -9 -9 -10 -9 -7 -8 -8 -8 -8 -8 -8 -8 -7 -7 -7 -8 -8 -8 -8 -8 -8 -8 -8 -8 -8 -8 -9 -9 -9 -9 -10 -10 -10
-12 -11 -10 -11 -10 -10 -9 -9 -9 -9 -9 -9 -9 -9 -10 -10 -9 -8 -8 -9 -8 -9 -8 -7 -8 -8 -8 -8 -8 -8 -8 -8 -8 -8 -8 -9 -9 -9 -10 -10 -10 -10 -9 -10
-12 -12 -10 -11 -10 -9 -10 -10 -10 -10 -9 -9 -9 -9 -10 -9 -9 -8 -9 -9 -9 -9 -8 -8 -8 -8 -8 -8 -8 -8 -8 -8 -8 -8 -9 -9 -9 -10 -10 -10 -9 -9 -9 -10
-12 -11 -11 -11 -11 -11 -11 -10 -10 -9 -9 -9 -9 -10 -10 -10 -9 -9 -10 -9 -9 -9 -9 -8 -8 -8 -8 -8 -8 -8 -8 -8 -8 -9 -9 -9 -9 -10 -10 -10 -9 -10 -10 -10
-14 -14 -13 -11 -10 -10 -10 -9 -9 -9 -9 -9 -9 -9 -10 -10 -9 -9 -10 -10 -9 -9 -9 -8 -8 -8 -8 -8 -8 -8 -8 -8 -9 -9 -9 -9 -9 -10 -10 -10 -10 -10 -10 -10
-15 -14 -13 -12 -11 -10 -10 -9 -9 -10 -10 -10 -9 -9 -10 -10 -10 -10 -10 -10 -9 -9 -9 -8 -8 -8 -8 -8 -8 -8 -8 -9 -9 -9 -9 -9 -9 -10 -9 -9 -10 -10 -10 -10
-13 -14 -13 -12 -12 -11 -10 -10 -9 -10 -9 -10 -9 -10 -10 -11 -10 -10 -10 -9 -9 -9 -9 -8 -8 -8 -8 -8 -8 -8 -8 -8 -9 -9 -9 -9 -9 -9 -9 -9 -10 -10 -10 -10
-12 -12 -11 -12 -11 -11 -10 -11 -10 -10 -10 -9 -9 -10 -10 -11 -10 -10 -10 -10 -9 -9 -9 -8 -8 -8 -8 -8 -8 -9 -9 -9 -9 -10 -9 -10 -9 -9 -10 -10 -10 -10 -10 -9
-12 -11 -11 -12 -11 -11 -11 -11 -10 -9 -10 -9 -9 -10 -10 -10 -9 -11 -10 -10 -10 -9 -9 -9 -9 -9 -9 -9 -9 -9 -9 -10 -10 -9 -10 -9 -9 -9 -10 -10 -10 -10 -10 -11
-13 -12 -13 -12 -12 -12 -11 -11 -10 -10 -10 -10 -10 -11 -11 -11 -11 -10 -10 -10 -10 -10 -10 -9 -10 -10 -10 -10 -10 -10 -10 -10 -10 -10 -10 -10 -10 -10 -10 -10 -10 -11 -11 -11
-13 -14 -13 -13 -12 -11 -10 -10 -10 -10 -10 -10 -10 -10 -10 -10 -10 -10 -10 -9 -10 -9 -9 -9 -10 -10 -10 -10 -10 -10 -10 -10 -10 -10 -10 -11 -11 -10 -11 -10 -10 -10 -10 -12
-14 -13 -13 -12 -12 -12 -11 -11 -12 -11 -11 -12 -11 -11 -10 -11 -10 -11 -10 -10 -11 -10 -10 -9 -10 -10 -10 -10 -10 -11 -10 -10 -11 -11 -10 -11 -11 -11 -11 -11 -11 -11 -11 -13
-14 -14 -14 -13 -13 -12 -12 -12 -12 -11 -12 -11 -11 -11 -10 -11 -11 -10 -10 -11 -10 -10 -10 -10 -11 -10 -11 -10 -10 -10 -11 -12 -12 -10 -10 -11 -11 -11 -11 -12 -11 -11 -12 -12
-14 -13 -13 -13 -13 -13 -13 -13 -12 -12 -12 -12 -12 -11 -11 -11 -10 -10 -11 -11 -11 -11 -10 -10 -11 -11 -11 -11 -11 -11 -11 -11 -11 -11 -11 -12 -12 -12 -12 -12 -13 -13 -13 -14
-14 -13 -13 -14 -13 -13 -12 -12 -12 -12 -12 -12 -12 -12 -11 -12 -11 -11 -11 -11 -11 -11 -11 -10 -10 -11 -11 -12 -12 -11 -12 -12 -12 -12 -12 -12 -12 -13 -13 -13 -13 -13 -13 -13
-14 -14 -13 -13 -13 -13 -13 -13 -13 -12 -12 -12 -14 -14 -13 -13 -13 -13 -13 -13 -12 -13 -13 -12 -12 -12 -12 -12 -12 -12 -12 -12 -12 -12 -12 -12 -13 -13 -14 -13 -14 -14 -14 -14
-14 -14 -14 -14 -14 -14 -15 -14 -15 -15 -16 -16 -16 -16 -15 -14 -13 -13 -13 -13 -12 -13 -13 -13 -12 -12 -12 -12 -13 -13 -13 -12 -12 -12 -13 -13 -13 -14 -13 -14 -13 -13 -14 -15
-15 -14 -14 -14 -15 -15 -15 -16 -16 -15 -15 -15 -15 -15 -14 -13 -14 -13 -13 -13 -13 -12 -12 -13 -13 -13 -12 -13 -13 -13 -13 -13 -14 -14 -14 -13 -13 -14 -14 -14 -14 -14 -14 -14
-16 -16 -16 -15 -15 -16 -16 -16 -16 -17 -16 -15 -15 -15 -14 -14 -14 -14 -15 -14 -14 -13 -13 -14 -14 -13 -13 -13 -13 -14 -13 -13 -14 -14 -14 -14 -14 -14 -14 -14 -15 -15 -15 -15
-18 -17 -17 -17 -17 -16 -16 -17 -16 -15 -16 -17 -16 -15 -15 -15 -14 -14 -14 -14 -14 -14 -14 -14 -14 -14 -14 -14 -14 -14 -14 -14 -14 -15 -15 -14 -14 -14 -14 -15 -15 -15 -15 -15
-18 -17 -17 -17 -17 -17 -17 -16 -17 -16 -16 -16 -17 -16 -15 -15 -15 -15 -15 -15 -15 -16 -15 -15 -15 -16 -16 -15 -15 -15 -15 -15 -15 -15 -15 -15 -15 -15 -15 -15 -15 -15 -15 -15
-18 -18 -17 -17 -17 -17 -17 -17 -17 -17 -17 -17 -17 -17 -16 -16 -16 -17 -16 -16 -16 -16 -16 -16 -16 -16 -16 -16 -16 -16 -15 -15 -15 -15 -16 -15 -16 -15 -15 -16 -16 -16 -16 -16

GFSNGP_500_temp_009.txt.gz
Temp
-7 -7 -8 -7 -7 -8 -7 -5 -6 -4 -5 -5 -5 -6 -7 -7 -7 -7 -8 -7 -7 -7 -7 -6 -6 -6 -6 -7 -7 -7 -7 -7 -7 -7 -8 -8 -8 -8 -8 -8 -8 -8 -8 -8
-9 -9 -9 -8 -8 -8 -8 -7 -6 -6 -4 -6 -7 -6 -7 -7 -8 -7 -7 -8 -8 -7 -7 -6 -6 -6 -6 -6 -7 -7 -7 -7 -7 -7 -7 -8 -8 -8 -8 -8 -8 -8 -8 -9
-9 -9 -10 -9 -6 -8 -8 -8 -8 -6 -4 -6 -7 -6 -6 -7 -8 -8 -7 -8 -8 -8 -8 -7 -7 -7 -6 -6 -7 -7 -7 -7 -7 -7 -7 -8 -8 -8 -8 -8 -8 -8 -9 -9
-11 -10 -10 -5 -7 -8 -9 -9 -8 -8 -7 -6 -6 -7 -6 -7 -7 -8 -5 -7 -9 -9 -9 -8 -7 -7 -7 -6 -6 -7 -8 -7 -8 -8 -7 -8 -8 -8 -8 -8 -9 -9 -9 -9
-11 -11 -10 -9 -7 -8 -9 -9 -9 -9 -9 -8 -8 -7 -7 -6 -7 -7 -7 -7 -8 -9 -8 -9 -9 -8 -8 -7 -6 -6 -7 -8 -8 -8 -8 -8 -8 -8 -8 -9 -9 -9 -9 -10
-12 -12 -10 -8 -9 -9 -9 -9 -9 -9 -9 -9 -6 -5 -6 -7 -7 -7 -8 -7 -8 -8 -8 -8 -9 -9 -8 -8 -7 -7 -7 -8 -8 -8 -8 -8 -9 -9 -9 -8 -9 -9 -9 -9
-12 -12 -10 -10 -10 -10 -10 -9 -9 -8 -8 -8 -8 -6 -6 -7 -7 -7 -7 -8 -8 -8 -8 -7 -8 -8 -8 -7 -7 -7 -8 -8 -8 -8 -9 -8 -9 -9 -8 -9 -9 -9 -8 -8
-13 -13 -12 -11 -11 -10 -10 -9 -9 -8 -8 -9 -8 -8 -8 -7 -7 -7 -7 -7 -8 -8 -9 -9 -9 -7 -8 -7 -7 -8 -8 -8 -8 -8 -9 -9 -9 -8 -9 -9 -9 -9 -9 -10
-12 -13 -13 -12 -11 -10 -10 -9 -9 -10 -9 -8 -8 -8 -8 -7 -6 -8 -9 -8 -7 -7 -8 -9 -9 -9 -8 -7 -8 -8 -8 -8 -8 -9 -9 -9 -8 -9 -9 -9 -9 -9 -9 -10
-12 -12 -10 -11 -11 -10 -8 -8 -9 -9 -9 -9 -9 -9 -8 -8 -8 -7 -9 -9 -9 -8 -9 -8 -9 -9 -9 -8 -8 -8 -8 -8 -9 -9 -9 -9 -9 -9 -9 -9 -9 -9 -9 -9
-12 -12 -11 -11 -10 -10 -10 -9 -8 -10 -9 -10 -9 -8 -8 -9 -9 -8 -9 -9 -9 -9 -9 -9 -9 -9 -9 -9 -8 -8 -8 -8 -9 -9 -9 -9 -9 -9 -9 -9 -9 -9 -10 -10
-11 -12 -11 -11 -10 -10 -11 -11 -10 -9 -9 -9 -9 -9 -10 -9 -8 -8 -9 -9 -10 -9 -10 -10 -10 -10 -9 -9 -9 -9 -8 -9 -9 -9 -9 -9 -10 -9 -10 -10 -10 -10 -9 -10
-12 -12 -11 -9 -9 -9 -10 -11 -10 -10 -9 -10 -10 -10 -9 -8 -7 -8 -8 -8 -8 -10 -10 -10 -10 -10 -10 -10 -9 -9 -8 -8 -9 -10 -9 -10 -9 -10 -10 -10 -10 -10 -9 -10
-13 -12 -12 -12 -10 -10 -10 -11 -11 -10 -10 -10 -10 -9 -9 -8 -9 -8 -9 -7 -10 -10 -10 -10 -10 -10 -9 -9 -9 -9 -8 -9 -10 -10 -9 -9 -10 -10 -10 -10 -10 -10 -10 -11
-13 -13 -13 -11 -11 -11 -11 -11 -10 -10 -11 -10 -10 -9 -10 -9 -9 -9 -9 -10 -10 -10 -10 -10 -10 -10 -10 -9 -9 -9 -9 -9 -9 -9 -10 -10 -10 -10 -10 -10 -11 -11 -10 -10
-12 -12 -12 -12 -12 -11 -12 -13 -12 -12 -11 -10 -9 -10 -9 -9 -8 -10 -10 -10 -10 -10 -10 -10 -10 -9 -10 -9 -9 -9 -9 -9 -10 -10 -9 -10 -10 -10 -10 -10 -10 -11 -10 -11
-13 -13 -13 -13 -12 -12 -12 -13 -12 -11 -11 -10 -10 -10 -10 -10 -10 -10 -10 -10 -10 -10 -10 -10 -10 -10 -9 -10 -10 -10 -10 -10 -10 -10 -10 -10 -10 -10 -10 -11 -11 -10 -10 -11
-14 -13 -14 -13 -13 -14 -13 -12 -11 -12 -11 -11 -10 -11 -10 -10 -11 -11 -10 -10 -10 -10 -10 -10 -10 -10 -10 -9 -11 -10 -10 -10 -10 -10 -10 -10 -11 -11 -11 -11 -10 -10 -11 -11
-14 -14 -13 -13 -13 -13 -12 -12 -12 -11 -11 -10 -11 -12 -11 -11 -12 -11 -11 -11 -11 -10 -10 -11 -11 -11 -11 -11 -11 -11 -11 -10 -11 -11 -11 -11 -11 -11 -12 -11 -10 -11 -11 -11
-14 -13 -14 -13 -13 -13 -13 -12 -12 -11 -11 -11 -12 -12 -12 -11 -12 -12 -11 -11 -11 -11 -11 -11 -11 -11 -11 -11 -11 -10 -11 -11 -11 -11 -11 -12 -12 -12 -11 -11 -11 -11 -12 -12
-14 -14 -14 -13 -14 -13 -13 -12 -12 -12 -12 -12 -12 -11 -11 -11 -12 -12 -12 -12 -11 -11 -11 -11 -12 -12 -11 -10 -11 -11 -11 -11 -11 -12 -13 -12 -12 -12 -12 -12 -11 -11 -12 -13
-15 -14 -14 -14 -14 -13 -12 -13 -13 -13 -13 -12 -12 -12 -13 -12 -12 -12 -12 -14 -13 -12 -13 -14 -14 -13 -13 -13 -14 -13 -13 -13 -13 -13 -13 -12 -12 -12 -13 -13 -14 -13 -12 -13
-15 -15 -15 -14 -14 -15 -14 -15 -15 -15 -14 -14 -14 -15 -14 -14 -14 -14 -14 -15 -14 -14 -15 -14 -14 -13 -14 -14 -13 -13 -13 -13 -13 -13 -13 -13 -14 -13 -14 -14 -14 -14 -14 -13
-16 -16 -16 -16 -15 -15 -15 -15 -15 -15 -15 -15 -15 -14 -15 -14 -14 -14 -14 -14 -14 -14 -14 -14 -14 -14 -14 -14 -13 -13 -13 -14 -14 -14 -14 -13 -14 -14 -14 -14 -14 -14 -13 -13
-17 -17 -16 -16 -16 -16 -16 -16 -17 -16 -16 -16 -15 -15 -15 -15 -15 -14 -15 -15 -15 -15 -14 -14 -14 -14 -14 -14 -13 -13 -13 -13 -13 -13 -13 -14 -14 -14 -14 -14 -15 -15 -15 -15
-16 -17 -17 -17 -17 -16 -16 -17 -17 -16 -16 -16 -16 -15 -15 -15 -15 -15 -15 -15 -15 -15 -15 -15 -15 -15 -14 -14 -14 -14 -15 -15 -15 -15 -15 -15 -14 -14 -15 -15 -14 -14 -15 -15
-17 -17 -17 -17 -17 -17 -17 -17 -16 -16 -17 -17 -16 -16 -16 -16 -15 -16 -16 -16 -15 -15 -15 -16 -16 -15 -15 -15 -15 -16 -16 -16 -16 -15 -15 -16 -16 -16 -15 -16 -16 -16 -15 -15

GFSNGP_500_temp_012.txt.gz
Temp
-3 -2 -6 -6 -5 -5 -4 -4 -3 -2 -3 -4 -5 -6 -6 -6 -7 -7 -7 -7 -7 -7 -7 -7 -7 -6 -7 -7 -7 -7 -7 -6 -7 -7 -7 -6 -7 -8 -8 -8 -8 -8 -8 -8
-4 -3 -4 -7 -7 -5 -4 -5 -5 -4 -4 -4 -5 -5 -6 -6 -7 -7 -7 -7 -6 -6 -7 -7 -7 -7 -7 -6 -6 -7 -7 -6 -7 -7 -7 -7 -7 -8 -8 -8 -8 -8 -8 -9
-6 -8 -8 -9 -3 -6 -6 -5 -5 -5 -4 -5 -5 -5 -5 -6 -6 -7 -8 -7 -8 -6 -6 -7 -7 -7 -7 -7 -7 -7 -7 -6 -7 -7 -7 -7 -7 -8 -8 -8 -8 -8 -9 -9
-9 -10 -10 -3 -6 -7 -8 -8 -7 -6 -6 -5 -5 -5 -5 -6 -6 -7 -7 -7 -6 -7 -6 -6 -6 -8 -7 -7 -7 -7 -7 -7 -7 -8 -7 -8 -8 -8 -8 -9 -9 -9 -9 -9
-10 -10 -10 -9 -7 -7 -8 -8 -8 -7 -5 -5 -5 -6 -6 -6 -6 -6 -7 -7 -7 -6 -7 -7 -8 -8 -8 -7 -7 -8 -8 -8 -8 -8 -8 -8 -8 -8 -9 -9 -9 -9 -9 -9
-13 -11 -10 -10 -10 -10 -9 -9 -9 -7 -6 -6 -6 -6 -5 -5 -5 -6 -6 -7 -8 -8 -7 -6 -7 -7 -7 -7 -8 -7 -8 -8 -8 -8 -8 -8 -8 -8 -9 -9 -9 -9 -9 -9
-14 -13 -11 -10 -10 -11 -10 -9 -8 -8 -8 -7 -7 -7 -6 -5 -6 -5 -6 -7 -7 -7 -8 -7 -7 -7 -7 -7 -7 -7 -9 -8 -8 -8 -8 -8 -9 -9 -8 -9 -9 -9 -9 -9
-13 -13 -13 -12 -11 -11 -11 -9 -9 -8 -9 -9 -8 -9 -8 -6 -6 -7 -6 -6 -6 -6 -7 -7 -7 -7 -7 -8 -7 -7 -8 -7 -8 -8 -8 -8 -9 -9 -9 -9 -9 -9 -9 -9
-14 -12 -13 -12 -12 -11 -10 -10 -9 -8 -8 -9 -9 -9 -9 -8 -7 -6 -7 -7 -7 -7 -7 -7 -8 -9 -9 -8 -8 -8 -8 -8 -7 -8 -8 -8 -9 -9 -9 -9 -9 -10 -9 -9
-14 -12 -13 -11 -11 -11 -10 -10 -9 -9 -9 -9 -9 -9 -8 -8 -8 -7 -7 -6 -7 -8 -8 -8 -8 -8 -8 -8 -9 -9 -9 -8 -7 -7 -8 -8 -9 -9 -9 -9 -9 -9 -10 -9
-14 -13 -12 -11 -11 -11 -10 -9 -9 -8 -9 -9 -9 -8 -8 -8 -8 -8 -7 -8 -8 -8 -8 -8 -9 -9 -9 -8 -8 -9 -9 -9 -8 -8 -8 -8 -9 -9 -9 -9 -9 -10 -9 -9
-14 -13 -12 -12 -11 -10 -10 -10 -9 -9 -9 -9 -9 -9 -8 -8 -8 -8 -8 -9 -8 -8 -8 -9 -9 -9 -10 -9 -9 -9 -10 -10 -10 -9 -8 -8 -8 -9 -7 -9 -10 -10 -10 -10
-13 -12 -12 -11 -11 -10 -10 -10 -10 -11 -10 -10 -9 -10 -9 -10 -8 -9 -9 -8 -8 -8 -7 -7 -8 -6 -11 -11 -10 -9 -9 -10 -9 -9 -8 -7 -9 -9 -10 -10 -10 -9 -9 -10
-13 -13 -12 -12 -11 -11 -10 -11 -12 -11 -11 -10 -10 -10 -9 -9 -10 -10 -9 -8 -8 -7 -7 -7 -6 -7 -7 -9 -8 -10 -10 -9 -9 -10 -10 -9 -9 -9 -10 -10 -10 -10 -9 -9
-13 -13 -13 -13 -12 -11 -12 -11 -11 -11 -11 -11 -11 -10 -10 -10 -10 -9 -9 -8 -7 -8 -9 -9 -8 -8 -9 -10 -10 -10 -10 -10 -10 -10 -9 -9 -9 -9 -10 -10 -10 -10 -9 -9
-14 -13 -13 -12 -12 -12 -12 -11 -11 -11 -12 -11 -10 -10 -9 -10 -10 -9 -9 -9 -8 -8 -9 -9 -9 -9 -10 -10 -10 -11 -10 -10 -10 -10 -9 -9 -9 -9 -9 -9 -9 -9 -10 -10
-14 -14 -13 -13 -13 -13 -12 -12 -11 -11 -11 -11 -11 -11 -10 -10 -10 -9 -10 -10 -9 -8 -9 -10 -10 -10 -11 -11 -11 -10 -10 -11 -10 -10 -9 -10 -10 -9 -9 -10 -10 -10 -11 -11
-13 -13 -13 -13 -12 -11 -12 -13 -12 -12 -12 -12 -11 -10 -11 -10 -10 -10 -10 -10 -10 -10 -10 -10 -11 -10 -10 -10 -10 -10 -10 -11 -10 -10 -10 -10 -10 -10 -9 -10 -10 -10 -11 -12
-14 -14 -14 -13 -13 -13 -14 -13 -13 -12 -12 -12 -11 -11 -11 -11 -10 -10 -10 -9 -10 -11 -11 -11 -11 -10 -10 -11 -11 -11 -11 -11 -10 -10 -10 -11 -10 -10 -10 -11 -11 -11 -11 -12
-14 -14 -14 -14 -14 -14 -14 -15 -13 -13 -12 -12 -11 -10 -11 -10 -10 -10 -10 -9 -10 -10 -12 -11 -11 -10 -11 -11 -11 -11 -11 -10 -10 -11 -10 -11 -10 -10 -10 -11 -12 -12 -12 -12
-14 -14 -14 -14 -14 -14 -13 -13 -13 -13 -12 -12 -11 -11 -10 -10 -11 -11 -11 -11 -11 -12 -12 -12 -11 -12 -11 -11 -11 -11 -11 -11 -11 -11 -10 -10 -10 -11 -11 -12 -12 -13 -13 -12
-15 -14 -15 -14 -14 -15 -14 -13 -13 -13 -12 -12 -12 -12 -11 -11 -12 -12 -12 -12 -12 -12 -12 -12 -12 -12 -11 -11 -11 -11 -11 -11 -11 -11 -11 -11 -11 -12 -12 -12 -12 -12 -13 -13
-15 -14 -14 -14 -14 -14 -13 -13 -13 -12 -13 -13 -14 -13 -12 -12 -12 -12 -13 -13 -13 -13 -13 -13 -13 -13 -13 -13 -13 -13 -13 -12 -12 -13 -13 -13 -13 -13 -13 -13 -12 -13 -13 -13
-15 -15 -15 -15 -15 -15 -14 -14 -14 -13 -14 -14 -14 -14 -14 -14 -14 -14 -14 -15 -15 -14 -14 -14 -14 -14 -14 -13 -13 -13 -13 -13 -13 -13 -13 -13 -13 -13 -13 -13 -14 -14 -13 -13
-16 -16 -16 -16 -16 -16 -16 -16 -15 -14 -14 -14 -14 -14 -15 -15 -15 -15 -15 -14 -15 -14 -14 -14 -14 -14 -14 -14 -14 -14 -14 -14 -14 -14 -14 -14 -14 -14 -14 -14 -14 -14 -15 -15
-17 -17 -17 -16 -16 -16 -16 -16 -16 -16 -16 -16 -16 -16 -16 -16 -16 -16 -16 -16 -16 -15 -14 -14 -15 -15 -15 -14 -14 -14 -14 -14 -14 -14 -15 -15 -15 -15 -15 -15 -15 -15 -15 -15
-18 -17 -17 -17 -17 -17 -16 -16 -16 -16 -16 -16 -16 -16 -16 -16 -16 -16 -16 -16 -15 -15 -15 -15 -16 -16 -15 -15 -15 -16 -16 -15 -16 -16 -16 -16 -16 -16 -16 -16 -16 -16 -16 -16

GFSNGP_500_temp_015.txt.gz
Temp
-4 -4 -5 -4 -4 -4 -3 -2 -2 -2 -2 -3 -4 -4 -4 -6 -6 -6 -6 -6 -5 -5 -5 -6 -6 -7 -8 -8 -8 -7 -7 -6 -7 -7 -7 -7 -6 -6 -7 -7 -8 -8 -9 -9
-5 -4 -5 -5 -3 -3 -2 -3 -4 -3 -3 -3 -4 -4 -5 -5 -6 -6 -5 -5 -5 -5 -6 -6 -6 -5 -7 -8 -7 -8 -7 -7 -7 -7 -7 -7 -7 -7 -7 -7 -8 -9 -9 -9
-6 -6 -6 -5 -3 -3 -3 -3 -4 -3 -3 -3 -4 -4 -4 -4 -4 -5 -6 -6 -6 -6 -6 -6 -5 -6 -6 -7 -7 -7 -7 -7 -7 -7 -7 -7 -7 -7 -8 -7 -8 -9 -9 -9
-8 -9 -8 -3 -5 -6 -5 -4 -4 -4 -4 -4 -5 -5 -4 -4 -5 -5 -6 -6 -6 -6 -6 -5 -6 -6 -5 -7 -7 -7 -7 -7 -7 -7 -7 -7 -8 -8 -8 -8 -8 -9 -9 -9
-10 -9 -7 -6 -7 -7 -7 -6 -5 -4 -4 -4 -5 -6 -5 -4 -5 -5 -6 -6 -6 -6 -6 -6 -5 -6 -6 -6 -6 -7 -7 -7 -8 -8 -8 -7 -8 -8 -8 -8 -8 -9 -9 -9
-12 -11 -10 -8 -9 -8 -7 -8 -6 -5 -5 -6 -6 -4 -5 -5 -5 -5 -5 -6 -7 -7 -6 -6 -6 -7 -7 -7 -7 -7 -6 -7 -8 -8 -8 -8 -8 -8 -9 -8 -9 -9 -9 -9
-13 -12 -11 -10 -10 -10 -10 -6 -7 -6 -7 -8 -7 -6 -7 -6 -6 -5 -5 -6 -6 -7 -7 -7 -7 -8 -7 -7 -7 -7 -7 -8 -8 -9 -9 -8 -8 -8 -8 -9 -9 -9 -9 -10
-13 -14 -13 -12 -11 -11 -11 -9 -8 -7 -8 -8 -9 -8 -8 -7 -7 -6 -5 -6 -6 -6 -7 -8 -7 -8 -8 -8 -9 -8 -9 -8 -9 -9 -9 -9 -9 -8 -8 -9 -9 -9 -9 -9
-15 -13 -13 -13 -12 -11 -11 -11 -10 -8 -8 -8 -8 -9 -9 -8 -7 -7 -6 -6 -6 -7 -8 -8 -8 -8 -9 -8 -9 -9 -9 -9 -8 -9 -9 -9 -10 -9 -9 -9 -9 -9 -9 -9
-16 -15 -13 -14 -12 -12 -11 -11 -11 -10 -9 -9 -8 -9 -9 -9 -8 -7 -7 -7 -7 -7 -8 -8 -8 -8 -8 -9 -9 -8 -8 -9 -9 -9 -9 -9 -8 -10 -10 -9 -9 -9 -9 -10
-16 -15 -13 -13 -13 -12 -11 -11 -11 -11 -11 -9 -9 -9 -9 -9 -9 -9 -8 -7 -7 -7 -8 -9 -9 -9 -8 -8 -8 -8 -9 -8 -8 -9 -9 -10 -9 -9 -9 -8 -9 -9 -9 -9
-17 -15 -14 -12 -11 -11 -11 -11 -11 -11 -10 -9 -9 -9 -9 -9 -9 -9 -8 -8 -8 -9 -9 -9 -9 -8 -8 -8 -8 -8 -8 -9 -9 -9 -9 -9 -9 -9 -9 -9 -9 -9 -9 -7
-17 -14 -13 -13 -11 -10 -12 -12 -10 -10 -11 -10 -10 -10 -9 -9 -9 -9 -9 -9 -8 -9 -9 -9 -8 -7 -7 -7 -7 -8 -8 -7 -8 -8 -9 -9 -10 -10 -10 -9 -9 -9 -6 -9
-16 -14 -13 -13 -11 -12 -12 -12 -12 -11 -11 -10 -9 -9 -9 -9 -9 -9 -9 -9 -9 -9 -9 -9 -8 -7 -7 -6 -6 -6 -7 -8 -8 -9 -9 -8 -10 -9 -10 -9 -9 -9 -10 -9
-14 -14 -12 -12 -12 -11 -12 -13 -13 -12 -11 -10 -9 -10 -9 -10 -10 -10 -10 -10 -9 -10 -9 -8 -7 -7 -7 -6 -6 -6 -7 -8 -9 -8 -7 -8 -9 -7 -9 -9 -9 -10 -10 -9
-14 -15 -12 -12 -12 -12 -12 -12 -13 -12 -11 -11 -11 -10 -10 -10 -10 -11 -11 -11 -10 -9 -9 -8 -7 -7 -7 -7 -8 -8 -8 -8 -9 -7 -8 -9 -10 -9 -9 -10 -10 -10 -10 -9
-14 -14 -14 -13 -12 -12 -12 -11 -12 -12 -11 -11 -11 -11 -11 -11 -11 -11 -11 -11 -10 -9 -8 -8 -8 -7 -9 -9 -9 -10 -9 -10 -10 -10 -10 -10 -10 -9 -10 -11 -11 -10 -10 -10
-14 -15 -13 -13 -13 -12 -12 -12 -11 -11 -11 -10 -11 -12 -11 -11 -11 -11 -11 -10 -9 -9 -8 -8 -8 -8 -9 -10 -10 -10 -11 -11 -11 -10 -10 -11 -11 -10 -10 -10 -10 -10 -11 -11
-14 -14 -13 -14 -13 -13 -13 -13 -12 -11 -11 -10 -11 -12 -12 -12 -12 -11 -11 -10 -9 -9 -8 -8 -9 -9 -10 -10 -10 -11 -11 -11 -11 -12 -11 -10 -10 -10 -10 -11 -10 -10 -10 -10
-14 -14 -14 -14 -14 -13 -13 -12 -12 -11 -10 -10 -10 -11 -13 -12 -12 -11 -11 -10 -10 -10 -9 -9 -9 -10 -10 -11 -11 -11 -11 -10 -11 -11 -11 -11 -11 -11 -10 -10 -11 -11 -11 -11
-14 -14 -14 -14 -14 -14 -12 -12 -12 -11 -13 -12 -12 -13 -13 -12 -12 -11 -11 -11 -11 -10 -10 -10 -10 -10 -11 -11 -12 -11 -11 -11 -11 -11 -11 -11 -11 -11 -11 -10 -11 -11 -11 -11
-14 -14 -14 -14 -14 -14 -14 -14 -14 -14 -14 -13 -13 -13 -13 -13 -13 -13 -12 -12 -11 -11 -11 -11 -11 -10 -10 -11 -12 -12 -12 -12 -11 -11 -11 -11 -11 -11 -11 -11 -11 -11 -11 -12
-15 -15 -14 -14 -14 -14 -15 -14 -14 -15 -14 -14 -14 -14 -15 -15 -14 -14 -13 -13 -12 -12 -12 -12 -12 -12 -11 -11 -12 -12 -12 -12 -12 -12 -11 -11 -11 -11 -12 -12 -12 -12 -13 -13
-16 -16 -15 -15 -15 -15 -15 -14 -15 -15 -15 -15 -15 -15 -15 -15 -15 -15 -15 -15 -14 -13 -13 -13 -13 -13 -13 -13 -13 -13 -13 -14 -14 -14 -13 -13 -13 -13 -12 -12 -13 -13 -13 -14
-17 -17 -16 -16 -16 -17 -16 -16 -16 -16 -16 -16 -16 -16 -16 -16 -16 -16 -15 -15 -15 -15 -15 -14 -14 -13 -13 -13 -13 -14 -14 -14 -14 -14 -14 -14 -14 -14 -13 -13 -14 -13 -14 -15
-17 -17 -17 -17 -17 -17 -16 -16 -16 -16 -16 -16 -16 -16 -16 -16 -16 -16 -16 -16 -16 -16 -16 -15 -15 -15 -14 -14 -14 -14 -14 -15 -15 -15 -14 -14 -14 -14 -14 -14 -14 -14 -14 -15
-17 -17 -17 -17 -17 -17 -16 -16 -17 -17 -17 -17 -16 -16 -16 -16 -16 -16 -16 -15 -15 -16 -16 -16 -16 -16 -16 -16 -16 -16 -16 -16 -16 -15 -15 -15 -15 -15 -15 -15 -15 -16 -16 -17

GFSNGP_500_temp_021.txt.gz
Temp
-7 -6 -6 -5 -5 -5 -4 -4 -3 -2 -2 -2 -3 -4 -4 -5 -5 -5 -6 -6 -7 -7 -6 -6 -7 -7 -7 -6 -6 -6 -6 -6 -7 -8 -8 -8 -8 -8 -8 -7 -7 -7 -8 -8
-8 -7 -6 -6 -5 -5 -5 -4 -4 -3 -3 -2 -3 -3 -4 -4 -4 -5 -5 -6 -6 -6 -6 -6 -7 -7 -7 -6 -6 -7 -6 -6 -7 -7 -8 -8 -7 -7 -7 -7 -7 -7 -7 -8
-8 -8 -7 -6 -5 -5 -6 -5 -5 -3 -3 -3 -3 -3 -4 -4 -3 -4 -5 -5 -5 -6 -6 -6 -6 -6 -7 -7 -7 -7 -7 -8 -7 -7 -7 -7 -7 -8 -8 -8 -8 -7 -8 -8
-9 -8 -7 -6 -6 -6 -6 -6 -5 -4 -4 -4 -4 -4 -4 -4 -4 -3 -4 -4 -4 -5 -5 -5 -6 -6 -7 -7 -7 -6 -7 -7 -7 -7 -7 -7 -7 -7 -8 -8 -8 -8 -8 -8
-10 -9 -7 -6 -6 -6 -6 -5 -5 -5 -4 -4 -4 -4 -4 -4 -4 -4 -4 -4 -4 -4 -4 -5 -5 -5 -6 -7 -7 -6 -6 -7 -7 -6 -7 -7 -7 -8 -8 -8 -8 -8 -8 -8
-10 -9 -8 -7 -7 -6 -6 -5 -6 -5 -5 -5 -5 -4 -4 -5 -5 -5 -4 -4 -4 -4 -4 -4 -4 -4 -5 -6 -7 -6 -6 -7 -7 -7 -8 -8 -8 -8 -8 -8 -8 -8 -8 -9
-12 -10 -8 -7 -8 -7 -6 -6 -6 -6 -6 -5 -5 -5 -5 -5 -5 -5 -6 -5 -5 -5 -5 -5 -5 -4 -4 -5 -6 -7 -7 -7 -7 -7 -7 -8 -8 -8 -8 -8 -8 -8 -9 -8
-12 -10 -8 -7 -9 -7 -7 -7 -6 -6 -6 -6 -6 -5 -5 -5 -5 -6 -6 -6 -5 -5 -5 -5 -5 -5 -5 -5 -6 -6 -6 -7 -7 -7 -7 -7 -7 -7 -7 -7 -7 -7 -8 -9
-13 -10 -9 -8 -9 -9 -8 -8 -7 -7 -7 -6 -7 -7 -6 -6 -6 -6 -6 -6 -6 -5 -6 -6 -6 -6 -5 -5 -5 -5 -6 -7 -7 -8 -8 -8 -8 -8 -8 -8 -7 -8 -7 -8
-14 -12 -9 -10 -9 -8 -8 -8 -8 -8 -8 -7 -7 -8 -8 -7 -7 -6 -6 -6 -6 -6 -6 -6 -6 -6 -6 -6 -6 -7 -7 -8 -8 -8 -8 -8 -8 -8 -8 -8 -9 -8 -8 -9
-14 -12 -12 -11 -11 -9 -8 -8 -9 -8 -8 -8 -8 -8 -8 -8 -8 -8 -7 -6 -7 -7 -7 -6 -6 -6 -6 -7 -7 -8 -8 -8 -8 -8 -8 -8 -8 -8 -9 -8 -8 -8 -9 -9
-15 -14 -12 -12 -10 -10 -9 -9 -10 -9 -9 -9 -10 -9 -9 -9 -9 -8 -8 -8 -7 -7 -7 -7 -7 -7 -7 -7 -8 -8 -8 -8 -8 -8 -8 -8 -8 -8 -9 -9 -8 -9 -9 -9
-17 -16 -13 -12 -11 -10 -10 -11 -11 -10 -10 -10 -10 -9 -9 -9 -10 -9 -9 -8 -8 -8 -7 -7 -7 -7 -7 -7 -7 -7 -8 -8 -8 -7 -7 -7 -7 -7 -8 -8 -8 -8 -9 -9
-20 -20 -17 -15 -13 -12 -12 -12 -12 -12 -11 -10 -10 -11 -10 -11 -10 -10 -10 -9 -9 -9 -8 -8 -8 -7 -7 -7 -7 -7 -7 -8 -7 -7 -7 -6 -6 -6 -6 -7 -7 -7 -8 -9
-19 -20 -19 -17 -15 -14 -13 -13 -13 -12 -11 -10 -10 -10 -10 -10 -11 -10 -10 -10 -10 -10 -9 -9 -9 -9 -8 -8 -8 -8 -8 -8 -7 -7 -6 -7 -7 -7 -7 -7 -6 -6 -6 -7
-18 -19 -18 -17 -15 -15 -13 -13 -13 -12 -12 -11 -11 -10 -10 -11 -11 -11 -11 -11 -11 -10 -10 -10 -10 -10 -10 -9 -8 -9 -8 -8 -7 -7 -7 -6 -7 -7 -6 -6 -6 -5 -5 -7
-17 -17 -16 -15 -14 -13 -13 -11 -13 -13 -13 -12 -12 -11 -11 -11 -11 -11 -10 -10 -11 -11 -11 -11 -10 -10 -10 -9 -9 -9 -8 -8 -8 -7 -7 -7 -8 -8 -7 -6 -6 -7 -7 -6
-16 -16 -16 -15 -15 -13 -14 -12 -13 -13 -12 -12 -12 -11 -12 -12 -11 -11 -10 -10 -10 -11 -11 -11 -10 -10 -10 -10 -9 -9 -9 -8 -8 -8 -8 -8 -8 -7 -8 -6 -7 -7 -8 -9
-15 -15 -14 -14 -14 -14 -14 -13 -13 -12 -13 -13 -12 -12 -11 -11 -12 -11 -12 -12 -10 -11 -11 -10 -9 -9 -9 -9 -9 -9 -9 -9 -9 -9 -9 -8 -9 -8 -8 -7 -9 -10 -10 -10
-14 -14 -14 -14 -14 -14 -13 -13 -14 -13 -12 -12 -12 -12 -12 -12 -12 -12 -11 -11 -11 -10 -10 -10 -10 -10 -10 -10 -9 -9 -10 -10 -10 -9 -9 -9 -9 -9 -8 -9 -8 -9 -10 -10
-15 -14 -15 -15 -14 -14 -14 -13 -13 -13 -12 -13 -13 -13 -13 -12 -13 -12 -12 -12 -11 -10 -10 -10 -10 -11 -11 -11 -11 -10 -10 -10 -10 -10 -10 -10 -10 -10 -10 -10 -11 -10 -10 -11
-16 -15 -15 -15 -15 -15 -14 -14 -14 -13 -13 -14 -13 -13 -13 -12 -12 -12 -12 -11 -11 -11 -11 -11 -11 -12 -12 -11 -11 -11 -11 -11 -11 -10 -10 -10 -10 -10 -11 -11 -11 -10 -10 -10
-16 -16 -16 -16 -15 -15 -16 -15 -15 -14 -14 -14 -14 -14 -14 -13 -13 -13 -13 -13 -13 -13 -12 -12 -12 -12 -12 -12 -11 -11 -11 -11 -11 -11 -11 -11 -11 -11 -11 -11 -12 -11 -11 -11
-17 -16 -16 -16 -16 -16 -16 -17 -17 -16 -16 -15 -15 -15 -14 -14 -14 -14 -14 -14 -14 -14 -14 -14 -14 -13 -13 -13 -12 -12 -12 -12 -12 -12 -12 -12 -12 -12 -12 -12 -12 -12 -12 -12
-17 -17 -18 -18 -18 -18 -17 -17 -17 -17 -17 -17 -17 -16 -16 -16 -16 -16 -16 -15 -16 -16 -15 -15 -14 -14 -14 -14 -14 -14 -14 -14 -13 -13 -13 -13 -13 -13 -13 -13 -13 -13 -12 -11
-17 -17 -17 -17 -17 -17 -17 -17 -17 -17 -17 -17 -17 -17 -17 -17 -17 -17 -17 -17 -17 -16 -16 -16 -15 -15 -15 -15 -15 -15 -14 -14 -14 -14 -14 -14 -14 -14 -14 -14 -14 -14 -13 -13
-18 -18 -18 -18 -18 -18 -18 -18 -18 -18 -18 -17 -17 -17 -17 -17 -17 -16 -16 -16 -16 -16 -16 -16 -16 -15 -15 -15 -15 -15 -15 -15 -15 -15 -15 -15 -14 -14 -14 -14 -14 -14 -14 -13

GFSNGP_500_temp_024.txt.gz
Temp
-7 -6 -6 -5 -5 -5 -4 -4 -3 -4 -3 -3 -3 -4 -5 -4 -5 -6 -6 -6 -7 -7 -6 -7 -7 -7 -7 -7 -7 -6 -6 -6 -6 -7 -7 -7 -8 -8 -7 -7 -7 -8 -7 -7
-7 -7 -6 -5 -5 -5 -5 -4 -4 -4 -3 -3 -3 -4 -4 -5 -5 -5 -5 -6 -6 -6 -7 -7 -7 -7 -7 -7 -7 -6 -6 -6 -7 -7 -6 -7 -8 -8 -7 -7 -7 -8 -8 -8
-8 -8 -8 -6 -5 -5 -5 -5 -5 -4 -4 -5 -4 -4 -5 -5 -5 -5 -5 -5 -6 -6 -5 -6 -6 -6 -7 -7 -6 -6 -6 -6 -6 -7 -7 -6 -7 -8 -8 -8 -8 -8 -8 -8
-10 -8 -8 -6 -7 -7 -7 -6 -6 -5 -5 -4 -4 -4 -5 -5 -5 -4 -4 -5 -5 -5 -5 -5 -5 -6 -6 -6 -6 -6 -6 -7 -6 -7 -7 -7 -7 -7 -7 -7 -7 -8 -8 -8
-10 -9 -9 -8 -7 -7 -7 -6 -6 -5 -5 -5 -4 -4 -5 -5 -5 -5 -5 -5 -5 -5 -4 -5 -5 -6 -6 -6 -6 -6 -6 -6 -7 -7 -7 -7 -7 -7 -7 -7 -7 -7 -8 -8
-11 -10 -9 -9 -8 -7 -6 -7 -7 -6 -6 -6 -5 -5 -5 -6 -5 -5 -5 -5 -4 -5 -5 -5 -5 -6 -6 -6 -6 -6 -7 -7 -7 -7 -7 -7 -7 -7 -7 -7 -7 -7 -7 -8
-12 -10 -10 -10 -9 -7 -8 -9 -7 -7 -6 -6 -5 -5 -4 -5 -5 -5 -5 -5 -5 -4 -4 -4 -4 -4 -4 -5 -5 -6 -6 -7 -7 -7 -6 -7 -7 -6 -7 -7 -7 -7 -7 -7
-13 -11 -10 -9 -9 -8 -8 -8 -7 -6 -6 -6 -5 -5 -5 -5 -5 -5 -5 -5 -5 -5 -4 -4 -4 -4 -4 -5 -5 -5 -6 -6 -6 -6 -6 -7 -7 -7 -7 -7 -7 -7 -7 -7
-14 -12 -10 -11 -10 -8 -8 -8 -7 -7 -6 -6 -6 -6 -6 -5 -5 -5 -5 -6 -5 -5 -5 -5 -4 -4 -4 -5 -5 -5 -6 -6 -6 -6 -6 -6 -7 -7 -7 -7 -7 -7 -7 -7
-14 -11 -9 -8 -8 -9 -8 -9 -8 -8 -7 -7 -7 -6 -6 -6 -6 -5 -5 -5 -5 -6 -5 -5 -5 -5 -5 -5 -5 -5 -6 -6 -6 -7 -7 -7 -7 -7 -7 -7 -8 -8 -8 -8
-14 -12 -11 -10 -9 -9 -10 -9 -8 -8 -7 -7 -7 -7 -7 -7 -6 -6 -6 -6 -6 -6 -6 -6 -6 -6 -6 -6 -6 -5 -5 -5 -6 -6 -7 -7 -7 -7 -7 -8 -8 -8 -8 -8
-14 -14 -13 -11 -11 -9 -7 -8 -8 -8 -8 -8 -8 -8 -7 -7 -7 -7 -7 -7 -6 -6 -7 -7 -6 -6 -6 -6 -6 -6 -6 -6 -6 -6 -6 -6 -7 -7 -7 -7 -7 -7 -8 -8
-15 -14 -13 -12 -10 -10 -9 -8 -8 -8 -8 -9 -9 -9 -10 -8 -8 -7 -7 -6 -6 -7 -7 -7 -7 -7 -7 -7 -7 -7 -7 -7 -7 -7 -7 -7 -7 -8 -8 -7 -7 -7 -7 -7
-18 -16 -13 -12 -11 -10 -9 -9 -8 -8 -7 -7 -8 -9 -9 -9 -9 -8 -8 -8 -7 -6 -6 -7 -7 -7 -7 -7 -8 -8 -8 -7 -7 -7 -7 -8 -8 -7 -7 -6 -6 -6 -7 -7
-17 -17 -17 -12 -11 -10 -10 -9 -9 -9 -9 -9 -9 -9 -9 -10 -9 -9 -9 -8 -8 -7 -8 -7 -7 -8 -8 -8 -8 -8 -8 -8 -8 -8 -8 -8 -8 -7 -7 -7 -6 -6 -6 -7
-18 -18 -18 -15 -12 -10 -11 -10 -10 -10 -10 -10 -10 -9 -10 -9 -9 -9 -9 -8 -8 -9 -8 -9 -9 -9 -9 -9 -9 -9 -9 -9 -9 -9 -9 -8 -8 -8 -7 -6 -6 -6 -6 -6
-18 -19 -19 -18 -16 -14 -13 -13 -13 -11 -11 -10 -11 -10 -11 -9 -9 -10 -9 -9 -9 -9 -9 -9 -9 -10 -9 -10 -10 -10 -9 -9 -8 -8 -8 -8 -8 -7 -8 -7 -7 -7 -7 -6
-19 -20 -17 -15 -15 -15 -13 -13 -12 -10 -10 -11 -11 -10 -9 -10 -10 -10 -10 -11 -11 -10 -10 -10 -10 -10 -10 -10 -10 -10 -10 -9 -8 -8 -8 -8 -8 -8 -8 -8 -8 -8 -8 -7
-16 -17 -16 -15 -14 -14 -14 -13 -13 -12 -12 -12 -12 -12 -11 -10 -10 -11 -11 -11 -11 -11 -11 -11 -10 -11 -11 -10 -10 -10 -10 -9 -9 -8 -8 -8 -8 -8 -9 -8 -9 -9 -8 -8
-16 -15 -15 -15 -14 -14 -13 -13 -13 -13 -11 -12 -13 -13 -12 -12 -12 -11 -11 -11 -11 -11 -11 -11 -10 -11 -10 -10 -11 -11 -11 -10 -9 -9 -9 -10 -10 -10 -11 -10 -10 -10 -9 -8
-15 -15 -14 -14 -14 -14 -14 -13 -13 -13 -13 -12 -12 -12 -13 -12 -12 -12 -12 -12 -11 -11 -12 -11 -12 -11 -11 -11 -11 -10 -10 -10 -11 -11 -11 -10 -10 -10 -10 -10 -10 -10 -9 -9
-16 -15 -14 -14 -14 -14 -14 -14 -13 -13 -14 -13 -13 -13 -12 -12 -12 -12 -12 -12 -12 -12 -12 -12 -11 -11 -11 -11 -10 -11 -10 -10 -11 -11 -11 -11 -11 -11 -11 -10 -10 -11 -10 -10
-16 -16 -15 -15 -15 -14 -14 -14 -14 -14 -14 -13 -13 -13 -13 -13 -13 -13 -13 -13 -13 -13 -12 -12 -12 -13 -12 -12 -11 -11 -11 -11 -11 -11 -11 -11 -11 -11 -10 -10 -11 -11 -11 -11
-17 -16 -16 -17 -16 -16 -16 -16 -16 -16 -15 -15 -14 -14 -14 -14 -14 -14 -14 -14 -14 -14 -13 -13 -14 -14 -13 -13 -13 -13 -12 -13 -12 -12 -11 -12 -12 -12 -11 -11 -10 -11 -11 -12
-16 -17 -16 -16 -16 -16 -16 -16 -16 -16 -16 -16 -16 -16 -16 -16 -16 -15 -15 -15 -15 -15 -15 -15 -14 -14 -14 -14 -14 -14 -14 -14 -13 -13 -13 -13 -13 -13 -12 -12 -12 -12 -12 -12
-17 -17 -17 -17 -16 -17 -17 -17 -16 -16 -16 -17 -17 -17 -17 -17 -17 -16 -16 -16 -16 -16 -16 -16 -16 -15 -15 -15 -15 -15 -15 -15 -14 -14 -14 -15 -14 -14 -14 -13 -13 -13 -13 -13
-18 -18 -18 -17 -17 -17 -17 -17 -17 -17 -17 -17 -17 -17 -17 -17 -17 -17 -17 -17 -17 -17 -17 -16 -16 -16 -15 -15 -15 -15 -15 -15 -14 -15 -15 -15 -15 -14 -14 -14 -14 -14 -14 -13

GFSNGP_500_temp_027.txt.gz
Temp
-8 -10 -10 -7 -6 -5 -5 -5 -5 -7 -7 -8 -5 -5 -5 -5 -5 -5 -5 -5 -5 -6 -6 -5 -5 -5 -5 -5 -5 -5 -5 -5 -5 -6 -6 -6 -6 -7 -7 -7 -7 -7 -7 -7
-9 -10 -10 -9 -10 -6 -7 -5 -5 -7 -8 -8 -7 -5 -5 -5 -5 -5 -5 -5 -5 -6 -6 -6 -6 -6 -6 -6 -6 -6 -5 -5 -6 -6 -6 -6 -7 -7 -7 -7 -7 -7 -7 -7
-9 -9 -9 -8 -7 -7 -10 -7 -6 -6 -7 -9 -8 -4 -4 -5 -5 -5 -5 -5 -5 -5 -5 -5 -6 -6 -6 -6 -6 -6 -6 -6 -6 -6 -6 -6 -7 -7 -7 -6 -7 -7 -7 -7
-10 -10 -10 -7 -8 -7 -7 -9 -8 -8 -7 -7 -5 -4 -5 -5 -5 -5 -6 -6 -6 -6 -6 -6 -6 -6 -6 -6 -6 -6 -7 -6 -6 -6 -6 -6 -7 -7 -6 -6 -6 -6 -6 -6
-10 -10 -10 -9 -10 -9 -8 -7 -7 -6 -6 -5 -5 -5 -5 -6 -6 -5 -5 -6 -6 -6 -6 -6 -6 -5 -5 -5 -6 -6 -7 -7 -6 -6 -6 -6 -6 -7 -7 -6 -6 -6 -6 -6
-11 -12 -13 -13 -13 -9 -8 -8 -7 -7 -7 -6 -5 -5 -5 -6 -5 -5 -4 -4 -5 -5 -5 -5 -5 -6 -6 -6 -6 -6 -7 -7 -6 -6 -6 -6 -6 -7 -7 -7 -6 -6 -6 -6
-12 -12 -13 -14 -13 -10 -10 -11 -9 -7 -7 -6 -5 -5 -4 -4 -5 -5 -5 -5 -4 -4 -4 -4 -5 -5 -5 -6 -6 -6 -6 -6 -6 -6 -6 -6 -6 -6 -6 -6 -6 -6 -6 -6
-14 -13 -14 -14 -14 -13 -12 -10 -8 -6 -5 -5 -4 -5 -5 -5 -5 -5 -5 -5 -5 -4 -4 -4 -4 -4 -5 -5 -6 -5 -5 -6 -6 -6 -7 -6 -6 -6 -6 -7 -7 -7 -6 -7
-16 -14 -14 -14 -13 -12 -10 -9 -7 -6 -5 -5 -5 -5 -6 -6 -5 -5 -5 -5 -5 -5 -5 -4 -4 -5 -4 -4 -5 -5 -4 -5 -5 -6 -6 -6 -7 -7 -7 -6 -6 -7 -6 -6
-16 -15 -14 -13 -12 -10 -8 -8 -7 -7 -7 -6 -6 -6 -6 -6 -6 -5 -5 -6 -6 -5 -5 -5 -5 -4 -4 -4 -4 -4 -4 -5 -5 -6 -6 -6 -6 -6 -6 -6 -6 -7 -7 -7
-16 -15 -14 -11 -11 -10 -9 -8 -9 -8 -7 -7 -6 -7 -7 -6 -6 -6 -6 -6 -6 -6 -5 -5 -5 -5 -5 -5 -5 -5 -5 -5 -5 -5 -5 -6 -6 -6 -6 -6 -7 -7 -7 -7
-16 -16 -15 -14 -12 -12 -11 -10 -9 -9 -8 -8 -8 -7 -7 -7 -7 -7 -6 -6 -6 -6 -6 -5 -5 -5 -5 -5 -5 -5 -5 -5 -5 -5 -5 -5 -6 -6 -6 -6 -7 -7 -7 -7
-15 -14 -14 -13 -13 -11 -10 -10 -10 -9 -9 -9 -8 -7 -7 -7 -8 -7 -7 -7 -6 -6 -6 -6 -6 -6 -5 -5 -5 -5 -5 -5 -5 -6 -5 -5 -5 -5 -6 -6 -6 -7 -7 -7
-17 -14 -13 -12 -12 -11 -10 -8 -9 -10 -10 -9 -8 -7 -8 -8 -8 -7 -7 -7 -7 -7 -7 -7 -6 -6 -6 -6 -6 -6 -6 -6 -5 -6 -6 -6 -6 -6 -7 -7 -7 -7 -7 -7
-17 -17 -16 -13 -11 -11 -10 -9 -8 -7 -8 -8 -8 -8 -8 -8 -8 -8 -7 -7 -7 -7 -7 -7 -7 -7 -7 -7 -7 -7 -7 -7 -7 -6 -6 -7 -7 -7 -7 -7 -6 -7 -7 -8
-17 -17 -17 -15 -12 -10 -10 -9 -8 -8 -8 -8 -8 -8 -8 -9 -8 -8 -8 -7 -7 -7 -8 -8 -7 -7 -7 -8 -8 -8 -8 -8 -8 -8 -8 -8 -8 -8 -8 -8 -8 -8 -9 -8
-17 -17 -17 -18 -16 -12 -9 -9 -9 -9 -9 -9 -9 -9 -8 -9 -8 -8 -8 -7 -8 -7 -8 -7 -7 -8 -8 -9 -9 -9 -9 -9 -8 -8 -9 -9 -9 -9 -9 -9 -8 -8 -8 -8
-17 -18 -18 -18 -18 -15 -13 -12 -10 -10 -10 -10 -10 -10 -9 -8 -8 -9 -8 -8 -8 -8 -8 -8 -8 -9 -8 -8 -9 -9 -9 -9 -9 -9 -9 -9 -9 -9 -8 -8 -8 -8 -7 -7
-16 -18 -18 -17 -17 -17 -15 -13 -12 -13 -11 -11 -10 -9 -9 -9 -9 -9 -9 -10 -10 -10 -10 -10 -10 -9 -9 -9 -9 -9 -9 -9 -10 -9 -9 -9 -9 -8 -8 -7 -7 -7 -7 -7
-16 -15 -17 -16 -16 -15 -13 -13 -12 -12 -12 -11 -10 -10 -10 -9 -9 -9 -9 -10 -9 -10 -11 -10 -11 -10 -10 -10 -10 -10 -10 -10 -10 -10 -9 -9 -10 -9 -9 -8 -7 -8 -8 -8
-16 -16 -15 -15 -15 -14 -14 -13 -12 -12 -12 -12 -11 -11 -10 -10 -11 -10 -10 -10 -11 -10 -10 -10 -10 -11 -11 -11 -11 -11 -10 -10 -9 -10 -10 -10 -10 -9 -8 -8 -8 -9 -9 -9
-16 -16 -16 -15 -15 -14 -14 -14 -13 -13 -13 -12 -12 -12 -12 -12 -11 -10 -11 -12 -11 -12 -12 -12 -11 -12 -11 -11 -11 -11 -11 -11 -11 -10 -9 -9 -9 -9 -9 -10 -10 -10 -10 -10
-17 -16 -16 -15 -15 -15 -15 -14 -14 -14 -13 -13 -13 -12 -12 -12 -13 -13 -12 -12 -12 -12 -12 -12 -12 -11 -11 -11 -11 -12 -12 -11 -11 -11 -11 -11 -12 -11 -11 -11 -11 -11 -10 -10
-17 -17 -16 -16 -16 -15 -14 -14 -14 -14 -14 -14 -14 -14 -13 -13 -13 -13 -12 -12 -12 -13 -12 -12 -12 -12 -12 -12 -12 -13 -13 -12 -12 -12 -11 -12 -13 -12 -12 -11 -11 -11 -11 -11
-17 -17 -16 -17 -17 -16 -16 -16 -16 -16 -15 -15 -15 -14 -14 -14 -13 -13 -14 -14 -13 -13 -13 -13 -14 -13 -13 -13 -13 -14 -14 -13 -13 -13 -13 -13 -13 -13 -12 -12 -12 -12 -12 -12
-17 -17 -17 -17 -17 -16 -16 -16 -16 -16 -16 -15 -16 -16 -16 -16 -16 -16 -16 -15 -16 -16 -15 -15 -15 -15 -15 -14 -15 -15 -15 -15 -15 -14 -14 -14 -14 -13 -14 -13 -13 -13 -13 -13
-18 -17 -17 -17 -17 -17 -17 -17 -17 -17 -16 -16 -16 -16 -16 -16 -16 -16 -16 -16 -16 -16 -16 -16 -16 -17 -17 -17 -17 -16 -16 -15 -15 -15 -15 -15 -15 -14 -14 -14 -14 -14 -14 -14

GFSNGP_500_temp_030.txt.gz
Temp
-10 -10 -9 -8 -7 -7 -5 -6 -6 -7 -7 -7 -7 -6 -6 -6 -6 -7 -7 -8 -8 -7 -6 -5 -5 -5 -5 -6 -5 -5 -5 -5 -5 -6 -6 -6 -6 -6 -6 -6 -7 -6 -7 -7
-11 -9 -10 -10 -9 -7 -9 -8 -8 -7 -7 -7 -7 -5 -6 -5 -5 -5 -5 -6 -7 -7 -6 -5 -5 -5 -5 -5 -5 -5 -5 -5 -6 -6 -6 -6 -6 -6 -6 -6 -6 -6 -7 -7
-9 -9 -9 -10 -10 -9 -9 -9 -9 -7 -7 -7 -8 -7 -6 -6 -5 -5 -5 -5 -5 -5 -5 -6 -5 -5 -6 -6 -6 -5 -5 -5 -6 -6 -6 -6 -6 -6 -6 -6 -6 -6 -6 -6
-10 -10 -10 -10 -10 -10 -10 -9 -9 -8 -8 -9 -9 -9 -7 -4 -5 -5 -5 -5 -6 -6 -6 -6 -6 -5 -5 -6 -6 -6 -6 -6 -6 -6 -6 -6 -6 -6 -6 -6 -6 -6 -6 -6
-11 -10 -10 -11 -10 -10 -10 -10 -9 -9 -8 -9 -9 -9 -8 -5 -5 -5 -5 -5 -5 -6 -6 -6 -6 -6 -6 -6 -6 -5 -5 -6 -6 -6 -6 -6 -6 -6 -6 -7 -7 -7 -6 -6
-12 -11 -11 -11 -11 -10 -11 -10 -10 -10 -10 -8 -9 -9 -8 -5 -5 -5 -4 -4 -4 -4 -4 -5 -5 -6 -6 -5 -5 -6 -6 -7 -7 -6 -7 -7 -7 -6 -6 -6 -7 -7 -6 -6
-13 -11 -11 -11 -11 -11 -11 -11 -10 -10 -10 -10 -9 -8 -4 -4 -6 -5 -5 -5 -5 -5 -5 -4 -4 -4 -4 -5 -5 -5 -6 -6 -7 -7 -7 -7 -7 -7 -6 -6 -6 -6 -6 -6
-15 -13 -12 -12 -11 -12 -11 -10 -10 -10 -8 -6 -6 -5 -4 -4 -5 -5 -6 -6 -5 -5 -5 -5 -5 -4 -4 -5 -5 -5 -5 -6 -6 -6 -7 -7 -7 -7 -6 -6 -6 -6 -6 -6
-16 -14 -13 -13 -12 -12 -12 -12 -11 -10 -8 -6 -5 -5 -4 -5 -6 -6 -6 -6 -5 -5 -4 -4 -4 -4 -4 -4 -4 -5 -5 -5 -6 -6 -6 -6 -6 -6 -6 -6 -6 -6 -6 -6
-16 -15 -14 -14 -14 -13 -12 -11 -11 -9 -8 -7 -5 -5 -5 -6 -6 -6 -6 -5 -5 -5 -5 -4 -4 -4 -4 -4 -4 -4 -4 -4 -4 -4 -4 -5 -5 -6 -6 -6 -6 -6 -6 -7
-17 -16 -15 -13 -13 -11 -12 -11 -9 -9 -7 -6 -6 -7 -7 -6 -6 -6 -6 -6 -6 -5 -5 -5 -5 -5 -5 -5 -5 -4 -4 -5 -4 -4 -4 -4 -5 -5 -5 -6 -6 -6 -6 -6
-17 -17 -16 -14 -13 -12 -10 -11 -10 -9 -7 -8 -8 -7 -7 -7 -6 -6 -6 -6 -6 -6 -5 -5 -5 -5 -5 -5 -5 -5 -5 -5 -5 -5 -4 -4 -5 -5 -5 -5 -5 -5 -5 -6
-16 -15 -14 -13 -13 -13 -11 -12 -11 -11 -10 -10 -9 -9 -8 -8 -7 -7 -7 -6 -6 -6 -6 -6 -6 -5 -5 -5 -5 -5 -5 -5 -5 -5 -5 -5 -5 -5 -5 -5 -5 -5 -5 -6
-12 -13 -13 -13 -13 -13 -12 -11 -12 -9 -9 -9 -10 -9 -9 -8 -7 -8 -8 -8 -7 -6 -6 -6 -6 -6 -6 -6 -6 -6 -6 -6 -6 -6 -5 -5 -5 -6 -6 -5 -5 -6 -6 -6
-16 -15 -12 -12 -12 -13 -12 -11 -11 -11 -11 -11 -11 -9 -8 -8 -8 -8 -8 -8 -8 -7 -7 -7 -7 -7 -7 -7 -7 -6 -6 -6 -6 -6 -6 -6 -6 -6 -6 -6 -6 -6 -6 -6
-16 -18 -18 -15 -13 -11 -12 -11 -11 -10 -11 -12 -11 -9 -7 -9 -10 -9 -8 -8 -8 -8 -8 -7 -7 -7 -7 -7 -7 -7 -7 -7 -6 -6 -7 -7 -6 -6 -6 -6 -6 -6 -7 -8
-16 -17 -18 -19 -17 -15 -12 -10 -10 -10 -9 -9 -10 -10 -11 -10 -9 -9 -9 -8 -7 -7 -7 -8 -7 -7 -7 -7 -7 -7 -7 -7 -7 -7 -7 -7 -7 -7 -8 -7 -7 -7 -8 -8
-18 -17 -18 -17 -17 -17 -15 -12 -10 -9 -9 -9 -9 -9 -9 -9 -9 -9 -8 -8 -7 -7 -7 -8 -8 -8 -7 -7 -7 -7 -7 -7 -8 -8 -8 -8 -8 -8 -8 -8 -9 -9 -8 -8
-18 -17 -17 -17 -17 -17 -17 -15 -13 -11 -9 -8 -8 -9 -9 -9 -8 -7 -7 -7 -7 -7 -7 -7 -8 -8 -8 -8 -7 -7 -7 -8 -8 -8 -9 -9 -9 -9 -9 -9 -9 -9 -8 -8
-18 -17 -17 -17 -17 -18 -18 -17 -15 -13 -10 -10 -10 -10 -11 -10 -9 -8 -8 -9 -9 -9 -9 -7 -7 -8 -8 -7 -7 -8 -9 -9 -9 -9 -9 -9 -9 -9 -9 -9 -9 -9 -9 -9
-17 -17 -17 -17 -17 -16 -17 -17 -15 -15 -14 -14 -13 -12 -11 -11 -10 -10 -10 -10 -10 -10 -10 -9 -10 -9 -9 -8 -8 -9 -9 -9 -10 -10 -10 -10 -9 -9 -9 -9 -9 -9 -9 -9
-18 -17 -17 -17 -16 -16 -15 -16 -14 -14 -15 -14 -13 -12 -11 -11 -10 -10 -11 -10 -9 -9 -10 -10 -10 -10 -10 -10 -11 -10 -10 -10 -10 -11 -10 -10 -10 -10 -9 -9 -9 -9 -9 -9
-17 -17 -17 -17 -16 -16 -16 -16 -15 -15 -15 -13 -13 -12 -12 -11 -11 -11 -11 -11 -11 -11 -11 -11 -11 -10 -11 -10 -11 -11 -11 -11 -11 -11 -11 -10 -10 -10 -9 -9 -9 -9 -9 -9
-17 -17 -17 -17 -16 -16 -16 -16 -16 -15 -15 -14 -14 -14 -13 -12 -12 -12 -12 -12 -12 -12 -12 -12 -12 -12 -12 -12 -11 -11 -11 -11 -12 -12 -11 -11 -10 -10 -11 -11 -10 -10 -10 -10
-18 -18 -17 -18 -18 -17 -16 -16 -15 -15 -15 -15 -15 -15 -14 -14 -14 -14 -13 -13 -14 -13 -13 -13 -13 -12 -12 -12 -12 -12 -12 -12 -12 -12 -12 -12 -12 -12 -12 -12 -12 -11 -11 -11
-18 -17 -18 -17 -17 -17 -17 -17 -17 -17 -17 -17 -17 -16 -16 -15 -15 -14 -15 -15 -14 -14 -14 -13 -13 -13 -13 -13 -13 -13 -13 -13 -13 -13 -13 -13 -13 -13 -13 -13 -13 -13 -13 -12
-19 -19 -18 -17 -17 -17 -17 -17 -17 -17 -16 -16 -16 -16 -16 -16 -16 -16 -16 -16 -16 -16 -16 -16 -16 -15 -15 -15 -15 -15 -14 -15 -14 -15 -16 -16 -15 -15 -15 -15 -14 -14 -14 -14

GFSNGP_500_temp_033.txt.gz
Temp
-9 -9 -10 -10 -10 -9 -8 -7 -6 -6 -7 -7 -7 -6 -6 -6 -6 -7 -8 -8 -7 -7 -5 -6 -7 -6 -5 -4 -4 -4 -5 -5 -4 -4 -5 -5 -5 -5 -6 -6 -6 -6 -6 -6
-10 -9 -10 -10 -10 -9 -8 -7 -6 -6 -7 -8 -7 -7 -7 -7 -7 -6 -7 -8 -8 -8 -7 -5 -6 -6 -5 -5 -5 -4 -5 -5 -5 -5 -5 -6 -6 -6 -6 -6 -6 -7 -6 -6
-10 -10 -10 -10 -9 -10 -9 -8 -7 -6 -7 -8 -8 -7 -7 -7 -6 -6 -6 -7 -8 -8 -7 -5 -5 -6 -6 -5 -6 -6 -6 -6 -6 -6 -6 -6 -6 -6 -6 -6 -6 -7 -7 -7
-10 -10 -9 -8 -11 -11 -10 -9 -8 -7 -8 -8 -8 -8 -7 -7 -6 -6 -6 -6 -6 -6 -5 -5 -5 -5 -6 -6 -6 -6 -6 -6 -6 -6 -7 -7 -7 -6 -6 -7 -6 -7 -7 -6
-11 -11 -8 -10 -10 -10 -10 -10 -9 -8 -9 -9 -9 -9 -8 -6 -6 -5 -5 -5 -5 -5 -6 -6 -6 -6 -6 -7 -6 -6 -6 -6 -6 -6 -7 -7 -7 -7 -7 -7 -7 -7 -7 -7
-11 -11 -10 -10 -10 -10 -11 -10 -9 -9 -10 -10 -9 -9 -8 -6 -5 -4 -4 -5 -5 -5 -5 -5 -6 -6 -5 -6 -6 -6 -5 -6 -6 -7 -7 -7 -7 -7 -7 -7 -7 -7 -7 -7
-13 -12 -10 -10 -10 -10 -10 -10 -10 -9 -10 -10 -8 -9 -7 -5 -4 -5 -5 -5 -6 -6 -6 -6 -6 -6 -6 -6 -5 -6 -6 -6 -7 -7 -7 -7 -7 -7 -7 -7 -7 -7 -7 -7
-12 -12 -11 -10 -10 -10 -11 -11 -11 -10 -11 -9 -7 -5 -6 -6 -4 -5 -5 -5 -5 -5 -5 -5 -6 -6 -6 -6 -6 -6 -6 -7 -7 -7 -7 -7 -7 -7 -7 -7 -7 -7 -7 -7
-12 -13 -11 -11 -10 -10 -11 -10 -11 -10 -10 -8 -6 -5 -4 -4 -4 -5 -5 -4 -4 -4 -5 -5 -4 -5 -5 -5 -5 -5 -5 -6 -7 -7 -7 -7 -7 -7 -7 -7 -7 -7 -7 -7
-13 -14 -12 -12 -12 -10 -10 -11 -11 -11 -10 -6 -6 -5 -5 -5 -4 -4 -6 -6 -6 -5 -5 -4 -5 -5 -5 -5 -5 -5 -5 -5 -5 -6 -6 -6 -6 -5 -5 -6 -6 -6 -6 -6
-15 -14 -12 -12 -12 -11 -10 -11 -11 -10 -9 -7 -6 -6 -6 -6 -6 -5 -6 -7 -6 -6 -5 -5 -5 -5 -5 -5 -5 -5 -5 -5 -5 -5 -5 -5 -5 -5 -4 -4 -4 -4 -5 -4
-15 -14 -12 -12 -12 -12 -11 -10 -10 -9 -8 -8 -7 -7 -7 -7 -7 -7 -7 -7 -7 -6 -6 -6 -5 -5 -5 -5 -5 -5 -5 -5 -5 -5 -5 -4 -4 -4 -4 -4 -4 -4 -5 -5
-14 -14 -13 -13 -12 -12 -12 -11 -9 -9 -8 -8 -8 -8 -8 -8 -8 -9 -7 -7 -7 -7 -6 -6 -6 -5 -5 -6 -5 -5 -5 -5 -5 -4 -5 -5 -5 -5 -5 -5 -5 -5 -5 -5
-14 -15 -13 -14 -13 -13 -11 -11 -10 -10 -9 -9 -9 -9 -9 -9 -9 -8 -7 -7 -7 -7 -6 -6 -6 -6 -6 -6 -6 -6 -5 -5 -5 -5 -5 -5 -5 -5 -5 -5 -5 -5 -5 -5
-16 -15 -15 -14 -13 -14 -14 -13 -12 -11 -12 -11 -10 -10 -9 -9 -9 -8 -8 -8 -8 -8 -7 -7 -6 -6 -6 -6 -6 -6 -6 -6 -6 -6 -6 -6 -6 -5 -5 -5 -5 -6 -6 -6
-15 -15 -14 -13 -12 -12 -13 -14 -13 -13 -13 -13 -13 -12 -11 -10 -9 -9 -9 -8 -8 -8 -8 -7 -7 -7 -6 -7 -6 -6 -6 -6 -6 -6 -6 -6 -6 -6 -6 -6 -6 -6 -6 -6
-15 -15 -15 -15 -14 -12 -12 -12 -12 -13 -13 -14 -14 -13 -12 -11 -11 -11 -10 -9 -9 -8 -8 -8 -7 -7 -8 -8 -7 -7 -7 -7 -7 -6 -6 -7 -7 -6 -6 -6 -6 -6 -6 -6
-18 -17 -17 -17 -16 -16 -15 -12 -11 -11 -11 -12 -12 -12 -11 -11 -11 -10 -9 -9 -9 -8 -8 -8 -8 -8 -8 -8 -7 -7 -7 -7 -7 -7 -7 -7 -7 -7 -7 -7 -7 -7 -7 -7
-17 -17 -17 -17 -17 -17 -17 -17 -15 -13 -11 -10 -10 -11 -11 -10 -10 -11 -10 -9 -9 -9 -9 -9 -9 -9 -8 -8 -8 -7 -7 -7 -7 -7 -8 -8 -8 -7 -7 -7 -7 -7 -7 -7
-17 -18 -17 -17 -17 -18 -18 -18 -17 -16 -14 -11 -9 -9 -9 -10 -9 -10 -9 -9 -9 -8 -9 -8 -8 -9 -7 -7 -8 -7 -7 -7 -7 -7 -7 -8 -8 -8 -8 -8 -8 -8 -8 -9
-18 -18 -18 -18 -17 -18 -17 -18 -18 -17 -15 -13 -11 -10 -9 -9 -9 -9 -9 -9 -9 -9 -9 -10 -10 -9 -9 -8 -8 -7 -8 -9 -9 -8 -8 -8 -8 -9 -9 -9 -9 -9 -9 -10
-17 -17 -18 -18 -18 -18 -17 -17 -17 -18 -18 -16 -15 -13 -12 -11 -11 -11 -11 -10 -9 -9 -9 -10 -10 -10 -10 -9 -8 -9 -9 -10 -10 -10 -10 -9 -10 -10 -10 -10 -10 -10 -10 -10
-17 -17 -17 -18 -18 -18 -17 -17 -17 -16 -16 -16 -14 -14 -14 -13 -12 -12 -12 -11 -10 -10 -10 -10 -10 -10 -10 -10 -10 -10 -11 -11 -11 -11 -10 -10 -10 -10 -10 -10 -11 -11 -11 -10
-18 -18 -18 -17 -17 -18 -17 -17 -17 -16 -16 -16 -15 -15 -14 -13 -13 -12 -13 -12 -12 -11 -11 -11 -11 -11 -11 -11 -11 -12 -12 -12 -11 -11 -11 -11 -11 -11 -10 -11 -11 -11 -11 -10
-19 -19 -18 -18 -18 -18 -17 -17 -17 -17 -16 -16 -15 -16 -15 -14 -14 -13 -13 -13 -13 -12 -12 -12 -11 -12 -12 -12 -12 -12 -12 -12 -12 -12 -12 -12 -11 -12 -11 -11 -12 -11 -12 -12
-20 -19 -19 -19 -18 -18 -18 -18 -17 -17 -16 -16 -15 -15 -15 -15 -15 -15 -14 -14 -14 -14 -13 -13 -13 -13 -13 -13 -13 -12 -12 -13 -13 -13 -12 -12 -12 -12 -12 -12 -12 -12 -12 -13
-20 -20 -20 -19 -19 -19 -18 -18 -17 -18 -18 -18 -17 -17 -16 -16 -16 -16 -15 -15 -14 -14 -14 -14 -14 -14 -14 -14 -14 -14 -14 -14 -14 -14 -13 -13 -14 -13 -13 -13 -13 -14 -14 -14

GFSNGP_500_temp_036.txt.gz
Temp
-9 -9 -10 -9 -10 -10 -9 -7 -6 -6 -6 -7 -6 -6 -6 -6 -6 -7 -7 -7 -7 -7 -7 -7 -8 -7 -6 -5 -5 -5 -5 -5 -5 -5 -5 -5 -5 -5 -5 -5 -4 -5 -6 -6
-9 -10 -10 -10 -9 -10 -10 -8 -7 -7 -7 -7 -6 -6 -6 -6 -6 -7 -7 -7 -8 -7 -7 -7 -7 -8 -7 -6 -5 -5 -5 -5 -5 -5 -5 -6 -6 -6 -6 -6 -5 -6 -6 -6
-11 -11 -11 -11 -11 -11 -10 -9 -8 -7 -7 -8 -8 -7 -7 -7 -7 -7 -7 -7 -7 -7 -7 -7 -7 -7 -8 -7 -6 -6 -6 -6 -6 -6 -6 -7 -7 -6 -6 -6 -6 -6 -6 -6
-12 -12 -11 -11 -11 -11 -10 -10 -10 -8 -8 -9 -8 -8 -8 -8 -7 -7 -7 -7 -7 -7 -7 -8 -8 -7 -7 -8 -7 -7 -8 -8 -7 -7 -7 -7 -7 -7 -7 -7 -7 -7 -7 -6
-13 -12 -11 -11 -11 -10 -10 -10 -9 -9 -9 -9 -9 -8 -8 -8 -8 -7 -7 -6 -6 -5 -6 -6 -6 -6 -7 -7 -7 -7 -8 -8 -8 -7 -7 -7 -7 -7 -7 -7 -7 -7 -7 -7
-13 -12 -12 -11 -11 -11 -10 -10 -10 -9 -9 -9 -9 -9 -8 -8 -8 -7 -7 -6 -5 -5 -5 -6 -6 -6 -6 -7 -7 -7 -7 -7 -7 -8 -8 -7 -7 -7 -7 -7 -7 -7 -7 -7
-12 -12 -12 -10 -10 -10 -11 -10 -10 -10 -9 -9 -9 -9 -9 -9 -7 -8 -6 -6 -6 -5 -5 -6 -6 -6 -6 -6 -7 -7 -7 -7 -8 -8 -8 -8 -8 -8 -7 -7 -7 -7 -7 -7
-12 -12 -11 -10 -10 -10 -10 -10 -10 -10 -9 -9 -8 -8 -9 -8 -8 -8 -8 -7 -7 -7 -6 -6 -6 -6 -6 -6 -6 -7 -7 -7 -7 -7 -7 -8 -7 -7 -7 -7 -7 -7 -8 -8
-12 -12 -11 -10 -10 -10 -10 -9 -10 -10 -9 -9 -8 -7 -9 -8 -8 -7 -8 -8 -7 -7 -6 -6 -6 -6 -5 -5 -6 -6 -6 -6 -7 -7 -8 -7 -7 -7 -7 -7 -8 -8 -8 -8
-12 -11 -12 -10 -9 -10 -11 -9 -10 -10 -8 -8 -8 -7 -7 -8 -8 -7 -7 -7 -6 -7 -7 -7 -6 -6 -5 -5 -5 -5 -6 -6 -6 -6 -7 -7 -7 -7 -7 -7 -7 -7 -7 -7
-13 -12 -12 -11 -11 -10 -10 -10 -10 -9 -7 -7 -8 -8 -8 -8 -9 -9 -6 -7 -7 -7 -7 -7 -7 -7 -6 -5 -5 -5 -5 -6 -6 -6 -6 -6 -6 -6 -6 -6 -6 -6 -6 -6
-13 -13 -12 -12 -11 -11 -10 -10 -11 -9 -7 -7 -8 -8 -8 -8 -9 -9 -7 -6 -7 -7 -7 -6 -7 -7 -7 -6 -6 -5 -5 -5 -5 -5 -6 -6 -6 -6 -5 -5 -5 -5 -5 -5
-14 -13 -12 -12 -12 -12 -11 -11 -11 -10 -7 -6 -7 -8 -8 -8 -8 -10 -10 -8 -6 -6 -7 -7 -7 -6 -6 -6 -6 -6 -5 -5 -5 -5 -5 -5 -5 -5 -5 -5 -5 -5 -5 -5
-15 -15 -13 -12 -12 -12 -12 -11 -11 -11 -9 -8 -6 -8 -8 -8 -9 -9 -10 -9 -7 -7 -7 -7 -7 -7 -6 -6 -6 -6 -6 -5 -5 -5 -5 -5 -5 -5 -5 -5 -5 -5 -5 -5
-13 -14 -13 -12 -12 -13 -12 -11 -12 -11 -11 -9 -8 -8 -8 -7 -8 -8 -9 -8 -7 -7 -8 -8 -7 -7 -7 -7 -6 -6 -6 -6 -6 -6 -5 -5 -5 -5 -5 -5 -5 -5 -5 -5
-12 -12 -13 -13 -11 -12 -13 -12 -13 -13 -12 -11 -10 -10 -9 -9 -8 -8 -8 -8 -7 -8 -8 -8 -8 -8 -8 -7 -7 -6 -6 -6 -6 -6 -6 -6 -6 -6 -5 -5 -5 -6 -6 -5
-15 -14 -14 -12 -12 -12 -13 -13 -12 -12 -12 -13 -12 -11 -10 -10 -9 -8 -8 -8 -9 -9 -9 -9 -8 -8 -7 -7 -7 -7 -7 -6 -6 -7 -7 -6 -7 -6 -6 -6 -6 -6 -6 -6
-18 -17 -16 -16 -15 -14 -12 -13 -13 -13 -13 -13 -12 -13 -11 -11 -10 -10 -9 -10 -10 -9 -8 -9 -9 -9 -8 -8 -8 -8 -7 -7 -7 -7 -7 -7 -7 -7 -7 -7 -7 -7 -7 -7
-17 -16 -16 -16 -16 -16 -16 -14 -12 -12 -12 -13 -13 -12 -11 -11 -10 -10 -11 -10 -9 -9 -8 -8 -9 -9 -9 -9 -8 -8 -8 -7 -7 -7 -7 -7 -7 -7 -7 -7 -7 -7 -8 -8
-18 -17 -17 -16 -17 -17 -17 -17 -16 -14 -12 -11 -12 -12 -12 -12 -11 -11 -11 -10 -10 -9 -9 -8 -9 -9 -9 -9 -9 -9 -8 -8 -8 -8 -8 -8 -8 -8 -8 -8 -8 -8 -8 -8
-18 -18 -17 -16 -17 -16 -17 -17 -17 -17 -16 -15 -13 -11 -11 -12 -12 -11 -11 -11 -10 -10 -9 -10 -9 -9 -9 -9 -9 -8 -9 -8 -8 -8 -8 -8 -8 -8 -8 -8 -8 -8 -9 -9
-18 -18 -18 -18 -17 -17 -17 -17 -17 -17 -18 -17 -16 -13 -12 -12 -11 -11 -11 -10 -10 -10 -10 -10 -9 -9 -9 -9 -9 -8 -7 -7 -8 -8 -8 -8 -8 -8 -8 -8 -8 -9 -9 -9
-18 -18 -18 -18 -18 -18 -17 -17 -17 -18 -18 -18 -18 -17 -15 -13 -12 -12 -11 -11 -10 -10 -9 -9 -9 -9 -9 -9 -9 -9 -9 -10 -10 -9 -9 -9 -10 -10 -10 -9 -9 -10 -10 -10
-19 -19 -19 -19 -18 -19 -18 -18 -18 -18 -18 -17 -17 -17 -17 -16 -16 -14 -12 -12 -11 -10 -9 -10 -9 -10 -9 -9 -9 -8 -10 -10 -9 -9 -9 -10 -11 -10 -10 -11 -11 -11 -11 -11
-20 -19 -19 -19 -19 -20 -18 -18 -18 -18 -18 -18 -17 -17 -18 -17 -15 -15 -15 -14 -13 -11 -12 -12 -12 -12 -11 -10 -10 -10 -10 -11 -11 -11 -11 -11 -11 -11 -11 -12 -12 -12 -11 -11
-20 -20 -20 -19 -19 -19 -19 -20 -19 -18 -18 -18 -18 -17 -16 -16 -15 -15 -15 -14 -14 -14 -13 -13 -13 -13 -12 -12 -12 -12 -12 -11 -11 -12 -12 -12 -12 -12 -12 -12 -13 -12 -12 -12
-21 -20 -20 -20 -20 -20 -20 -20 -19 -20 -20 -18 -18 -17 -17 -16 -16 -16 -15 -15 -14 -13 -13 -13 -14 -13 -13 -13 -13 -13 -13 -12 -12 -12 -12 -12 -12 -12 -13 -13 -13 -12 -12 -12

GFSNGP_500_temp_042.txt.gz
Temp
-16 -15 -14 -13 -12 -11 -9 -8 -7 -7 -5 -7 -8 -6 -6 -7 -7 -7 -7 -7 -7 -8 -8 -8 -7 -8 -7 -6 -6 -5 -5 -5 -5 -5 -5 -5 -5 -5 -5 -5 -5 -5 -5 -6
-16 -15 -14 -13 -12 -11 -9 -8 -8 -7 -6 -9 -8 -8 -6 -6 -7 -7 -7 -7 -7 -8 -8 -9 -8 -7 -7 -6 -6 -5 -5 -5 -5 -6 -6 -5 -5 -5 -5 -5 -5 -5 -5 -6
-16 -16 -15 -14 -12 -12 -10 -9 -8 -7 -7 -9 -8 -9 -8 -7 -6 -6 -5 -5 -6 -7 -8 -8 -8 -8 -7 -6 -6 -6 -6 -6 -5 -5 -5 -5 -5 -5 -6 -6 -5 -6 -5 -6
-17 -16 -15 -14 -12 -12 -11 -10 -9 -7 -8 -9 -8 -9 -9 -9 -6 -5 -6 -6 -6 -7 -8 -8 -9 -8 -8 -7 -6 -6 -6 -6 -6 -6 -6 -6 -6 -6 -6 -6 -6 -6 -6 -6
-17 -15 -15 -14 -14 -13 -12 -11 -9 -8 -8 -9 -9 -8 -8 -8 -6 -7 -7 -6 -6 -7 -8 -8 -8 -8 -8 -8 -7 -6 -7 -6 -6 -6 -6 -6 -7 -7 -7 -7 -7 -7 -7 -7
-16 -15 -14 -13 -13 -12 -12 -11 -10 -8 -8 -8 -8 -8 -7 -7 -7 -7 -7 -7 -7 -7 -8 -8 -9 -8 -8 -8 -8 -7 -7 -7 -7 -7 -7 -7 -7 -8 -8 -7 -7 -7 -8 -8
-15 -15 -14 -13 -13 -12 -12 -11 -10 -8 -8 -8 -8 -7 -7 -7 -7 -7 -7 -7 -8 -8 -8 -9 -8 -9 -9 -9 -8 -8 -9 -8 -8 -8 -8 -8 -8 -8 -8 -8 -7 -7 -8 -8
-15 -15 -15 -14 -13 -13 -12 -11 -10 -8 -8 -8 -8 -7 -7 -7 -7 -8 -8 -8 -8 -8 -8 -8 -8 -9 -9 -9 -8 -9 -9 -9 -9 -9 -9 -9 -8 -8 -8 -9 -8 -8 -8 -8
-15 -14 -14 -14 -13 -12 -12 -11 -10 -9 -8 -8 -8 -8 -7 -8 -8 -8 -8 -8 -8 -8 -8 -8 -8 -9 -9 -8 -8 -8 -9 -9 -9 -8 -9 -9 -8 -8 -9 -9 -8 -8 -8 -8
-15 -14 -14 -14 -13 -12 -12 -11 -10 -9 -8 -8 -8 -8 -8 -8 -8 -8 -8 -8 -8 -8 -8 -8 -9 -9 -9 -9 -9 -9 -9 -9 -9 -9 -8 -8 -8 -8 -8 -9 -9 -8 -8 -9
-15 -14 -13 -14 -13 -13 -12 -11 -10 -9 -9 -8 -8 -8 -8 -8 -8 -8 -8 -8 -8 -9 -8 -8 -9 -9 -9 -9 -9 -9 -9 -9 -10 -8 -9 -9 -9 -9 -9 -9 -9 -9 -8 -8
-13 -14 -14 -13 -13 -13 -12 -12 -10 -10 -9 -9 -9 -8 -8 -8 -8 -8 -8 -8 -9 -9 -9 -9 -9 -9 -10 -10 -9 -9 -9 -9 -9 -9 -9 -9 -9 -9 -9 -9 -9 -8 -7 -8
-14 -14 -14 -13 -13 -13 -12 -12 -11 -10 -10 -10 -9 -9 -9 -9 -8 -8 -8 -8 -9 -9 -9 -9 -9 -9 -9 -9 -9 -9 -8 -8 -8 -8 -8 -8 -8 -8 -8 -8 -8 -8 -8 -8
-14 -14 -13 -13 -12 -13 -13 -12 -11 -10 -10 -10 -10 -9 -9 -9 -9 -9 -9 -9 -9 -10 -10 -10 -10 -10 -10 -10 -9 -9 -9 -8 -8 -7 -7 -7 -7 -7 -8 -8 -8 -8 -8 -7
-15 -14 -14 -13 -13 -13 -13 -12 -12 -11 -11 -10 -10 -10 -9 -9 -9 -9 -9 -9 -9 -9 -10 -10 -10 -10 -10 -10 -10 -9 -9 -9 -8 -8 -7 -7 -7 -7 -7 -7 -7 -7 -6 -6
-14 -15 -16 -14 -14 -13 -13 -13 -12 -11 -11 -11 -11 -11 -11 -10 -9 -9 -9 -9 -9 -9 -9 -10 -10 -10 -10 -10 -10 -9 -9 -9 -9 -8 -8 -8 -7 -7 -7 -7 -7 -7 -7 -7
-16 -14 -14 -14 -14 -13 -13 -13 -13 -12 -13 -12 -11 -11 -11 -11 -11 -10 -10 -10 -9 -9 -9 -9 -9 -10 -10 -9 -9 -9 -9 -9 -9 -8 -8 -8 -7 -7 -7 -7 -7 -7 -7 -7
-17 -16 -15 -15 -15 -14 -14 -13 -13 -13 -13 -12 -12 -12 -11 -10 -10 -10 -10 -11 -10 -10 -10 -10 -10 -10 -10 -9 -9 -9 -9 -9 -9 -9 -9 -8 -7 -7 -7 -7 -7 -7 -7 -7
-18 -18 -17 -16 -14 -14 -13 -13 -13 -12 -12 -12 -12 -13 -13 -13 -12 -12 -10 -11 -11 -10 -10 -11 -11 -11 -10 -10 -10 -10 -10 -9 -9 -9 -9 -8 -8 -8 -8 -8 -8 -8 -8 -7
-17 -17 -17 -17 -17 -16 -16 -16 -14 -13 -13 -13 -13 -13 -13 -13 -13 -13 -12 -10 -11 -11 -11 -10 -11 -11 -11 -11 -11 -11 -11 -10 -10 -9 -9 -9 -9 -8 -8 -8 -8 -8 -8 -8
-18 -18 -17 -17 -17 -17 -17 -16 -17 -16 -15 -15 -13 -13 -12 -13 -12 -13 -13 -13 -12 -12 -10 -10 -10 -11 -11 -11 -11 -11 -11 -11 -10 -9 -10 -10 -9 -9 -9 -9 -9 -10 -9 -9
-19 -19 -18 -18 -17 -17 -17 -18 -16 -16 -16 -16 -16 -15 -14 -13 -13 -12 -12 -12 -13 -12 -12 -12 -12 -12 -12 -12 -11 -11 -11 -11 -11 -11 -10 -10 -10 -9 -9 -9 -9 -9 -8 -8
-20 -20 -20 -19 -18 -18 -17 -17 -17 -17 -16 -16 -17 -17 -16 -15 -14 -14 -13 -12 -12 -11 -12 -12 -12 -13 -12 -12 -12 -12 -12 -12 -11 -11 -11 -10 -10 -10 -10 -9 -9 -9 -9 -9
-21 -21 -20 -20 -20 -19 -19 -19 -18 -17 -17 -17 -17 -16 -16 -16 -16 -16 -15 -14 -13 -12 -11 -11 -11 -11 -11 -11 -11 -13 -13 -13 -12 -12 -11 -11 -10 -10 -10 -9 -9 -10 -10 -9
-21 -21 -21 -21 -21 -20 -20 -19 -19 -19 -19 -18 -17 -17 -17 -17 -17 -17 -17 -17 -16 -14 -13 -12 -11 -11 -12 -12 -12 -12 -13 -12 -12 -12 -12 -12 -11 -11 -10 -10 -10 -10 -10 -10
-22 -21 -21 -21 -21 -21 -20 -20 -20 -20 -19 -19 -19 -18 -17 -16 -16 -17 -18 -18 -18 -18 -17 -16 -15 -13 -13 -12 -12 -12 -11 -11 -12 -13 -12 -12 -11 -11 -11 -11 -11 -10 -10 -10
-22 -22 -22 -22 -22 -22 -21 -21 -20 -20 -20 -20 -20 -19 -19 -19 -18 -18 -18 -18 -19 -19 -17 -17 -17 -17 -16 -17 -16 -15 -13 -12 -13 -12 -12 -12 -12 -12 -12 -11 -11 -11 -11 -11

GFSNGP_500_temp_045.txt.gz
Temp
-18 -17 -17 -16 -15 -14 -13 -11 -10 -9 -8 -7 -7 -6 -7 -6 -7 -8 -8 -8 -8 -8 -8 -8 -8 -7 -6 -6 -6 -6 -6 -5 -5 -5 -5 -5 -5 -4 -5 -5 -5 -5 -5 -5
-21 -20 -18 -16 -14 -14 -12 -11 -10 -9 -8 -7 -7 -7 -6 -6 -7 -7 -8 -8 -8 -8 -8 -8 -8 -8 -7 -6 -6 -6 -5 -5 -5 -5 -5 -5 -5 -5 -5 -5 -5 -5 -5 -5
-24 -23 -21 -16 -14 -13 -12 -11 -10 -9 -8 -8 -7 -8 -6 -6 -7 -7 -7 -8 -8 -8 -8 -8 -8 -8 -8 -7 -6 -6 -5 -5 -5 -5 -6 -6 -6 -5 -5 -5 -5 -5 -5 -5
-23 -21 -21 -16 -15 -14 -12 -10 -10 -10 -8 -8 -8 -8 -7 -6 -6 -7 -7 -7 -7 -8 -8 -8 -8 -8 -9 -8 -7 -6 -6 -6 -5 -5 -6 -6 -6 -5 -5 -5 -5 -5 -5 -6
-21 -20 -19 -17 -16 -14 -12 -11 -10 -10 -8 -8 -9 -9 -8 -7 -6 -6 -6 -7 -7 -7 -7 -8 -8 -8 -9 -8 -8 -7 -6 -6 -6 -6 -6 -6 -6 -6 -6 -6 -6 -6 -6 -6
-20 -18 -16 -17 -16 -14 -12 -12 -11 -10 -8 -9 -10 -9 -8 -7 -7 -6 -6 -6 -6 -7 -7 -8 -8 -8 -8 -9 -8 -8 -6 -6 -6 -6 -6 -6 -6 -6 -6 -6 -6 -6 -6 -6
-19 -16 -16 -16 -15 -14 -14 -12 -11 -10 -9 -10 -10 -9 -9 -8 -9 -8 -6 -6 -7 -7 -7 -8 -8 -8 -8 -9 -9 -9 -7 -6 -6 -6 -6 -6 -7 -7 -7 -7 -7 -7 -7 -6
-17 -16 -15 -16 -15 -15 -14 -13 -11 -10 -9 -10 -9 -10 -9 -9 -9 -7 -7 -7 -7 -6 -7 -7 -8 -9 -8 -8 -9 -9 -8 -7 -7 -7 -7 -7 -7 -7 -7 -7 -7 -7 -8 -8
-16 -17 -14 -15 -15 -14 -14 -13 -11 -9 -9 -10 -9 -10 -9 -9 -8 -7 -7 -8 -8 -7 -7 -8 -8 -8 -8 -9 -8 -9 -8 -8 -7 -7 -7 -8 -8 -8 -8 -8 -8 -8 -8 -8
-16 -15 -15 -15 -14 -14 -14 -13 -11 -9 -10 -9 -10 -9 -9 -8 -8 -7 -8 -8 -8 -8 -8 -8 -8 -8 -8 -8 -7 -8 -8 -9 -8 -8 -8 -8 -8 -8 -8 -8 -8 -8 -8 -8
-16 -15 -14 -15 -14 -13 -14 -13 -11 -10 -10 -10 -9 -9 -9 -8 -8 -8 -8 -8 -8 -8 -8 -9 -8 -8 -8 -8 -9 -9 -9 -9 -9 -8 -8 -9 -9 -9 -9 -8 -9 -9 -9 -9
-15 -15 -15 -15 -14 -13 -13 -12 -12 -11 -10 -10 -9 -9 -9 -8 -8 -8 -8 -8 -8 -8 -8 -8 -8 -8 -8 -9 -9 -9 -9 -9 -9 -9 -9 -9 -8 -9 -9 -9 -9 -9 -9 -9
-15 -15 -15 -15 -14 -13 -13 -13 -12 -11 -11 -10 -10 -10 -9 -8 -9 -9 -8 -8 -8 -8 -9 -8 -8 -8 -9 -9 -9 -9 -9 -9 -9 -10 -6 -9 -9 -9 -9 -9 -9 -9 -9 -9
-15 -15 -15 -14 -14 -14 -14 -13 -12 -11 -11 -11 -10 -10 -10 -9 -9 -9 -9 -9 -8 -8 -8 -8 -8 -8 -9 -9 -9 -8 -9 -8 -7 -9 -8 -10 -9 -9 -8 -8 -8 -8 -8 -8
-15 -15 -15 -14 -14 -14 -14 -12 -12 -12 -11 -11 -11 -10 -10 -10 -9 -9 -9 -9 -9 -8 -8 -9 -9 -9 -9 -9 -9 -9 -9 -10 -9 -10 -10 -10 -9 -8 -8 -8 -8 -8 -8 -8
-15 -15 -14 -14 -14 -14 -13 -13 -13 -13 -12 -11 -11 -11 -10 -11 -10 -9 -9 -9 -9 -9 -9 -9 -9 -9 -9 -9 -9 -9 -9 -9 -9 -9 -9 -9 -8 -8 -8 -8 -8 -8 -8 -8
-17 -16 -15 -14 -15 -14 -13 -13 -13 -13 -13 -12 -12 -12 -13 -10 -10 -11 -11 -10 -10 -9 -9 -9 -9 -9 -9 -9 -10 -9 -9 -9 -9 -9 -9 -9 -9 -9 -8 -8 -8 -8 -8 -8
-18 -17 -17 -16 -15 -15 -14 -14 -14 -14 -14 -12 -12 -12 -12 -11 -12 -11 -11 -11 -11 -10 -10 -10 -10 -10 -10 -10 -10 -10 -10 -10 -10 -10 -10 -10 -9 -9 -9 -9 -8 -8 -7 -7
-18 -18 -17 -17 -17 -16 -15 -15 -14 -14 -14 -13 -13 -13 -14 -13 -13 -12 -11 -11 -11 -11 -11 -11 -11 -11 -11 -10 -10 -10 -10 -10 -11 -10 -10 -10 -9 -9 -9 -9 -8 -8 -8 -8
-18 -17 -17 -17 -17 -17 -16 -16 -15 -15 -14 -14 -13 -13 -13 -13 -13 -13 -12 -12 -11 -11 -11 -10 -11 -11 -11 -11 -11 -10 -10 -10 -10 -10 -10 -10 -10 -9 -9 -9 -9 -9 -8 -8
-19 -19 -18 -17 -17 -17 -17 -16 -15 -15 -14 -14 -14 -14 -13 -13 -12 -12 -12 -12 -13 -13 -13 -11 -10 -10 -11 -11 -11 -11 -10 -10 -10 -11 -11 -11 -10 -10 -10 -10 -10 -10 -9 -9
-20 -20 -19 -19 -18 -18 -17 -17 -17 -16 -15 -15 -15 -14 -13 -13 -13 -12 -12 -12 -12 -12 -12 -12 -12 -12 -11 -11 -10 -11 -11 -11 -11 -10 -11 -10 -11 -10 -11 -11 -10 -10 -10 -10
-21 -20 -20 -20 -19 -19 -18 -18 -17 -17 -17 -17 -16 -16 -16 -15 -14 -13 -13 -12 -12 -12 -12 -11 -11 -12 -12 -10 -11 -10 -11 -11 -11 -11 -11 -11 -11 -11 -11 -10 -11 -11 -10 -10
-21 -21 -21 -20 -20 -20 -19 -19 -19 -18 -17 -17 -17 -17 -17 -16 -16 -15 -14 -14 -13 -13 -12 -11 -11 -11 -11 -11 -12 -11 -13 -12 -12 -11 -12 -11 -11 -11 -11 -10 -10 -11 -11 -10
-22 -22 -21 -21 -21 -20 -20 -20 -19 -19 -19 -18 -17 -17 -17 -17 -17 -16 -16 -16 -15 -15 -14 -13 -12 -12 -11 -11 -11 -11 -12 -12 -12 -12 -13 -12 -12 -11 -11 -11 -12 -11 -11 -11
-22 -22 -22 -22 -22 -21 -21 -21 -20 -20 -19 -19 -19 -19 -18 -17 -17 -17 -17 -16 -16 -16 -16 -15 -15 -14 -13 -12 -12 -12 -12 -12 -11 -12 -12 -11 -11 -11 -11 -12 -12 -11 -11 -11
-23 -23 -22 -22 -22 -22 -22 -22 -21 -21 -20 -20 -20 -20 -19 -19 -19 -18 -17 -17 -17 -17 -16 -17 -17 -16 -16 -15 -13 -13 -13 -13 -13 -13 -12 -12 -11 -10 -10 -11 -11 -11 -11 -12

GFSNGP_500_temp_048.txt.gz
Temp
-17 -17 -17 -17 -16 -15 -15 -13 -10 -10 -14 -11 -8 -8 -7 -7 -7 -7 -8 -8 -8 -8 -8 -8 -8 -8 -7 -6 -5 -5 -5 -5 -5 -5 -5 -5 -5 -5 -5 -5 -5 -5 -5 -5
-19 -18 -18 -17 -17 -15 -15 -15 -12 -10 -10 -9 -8 -8 -7 -7 -6 -7 -8 -8 -8 -8 -8 -8 -8 -8 -8 -7 -6 -5 -5 -5 -5 -5 -5 -5 -5 -5 -5 -5 -5 -5 -5 -5
-21 -20 -19 -18 -16 -16 -15 -15 -14 -11 -10 -12 -7 -7 -8 -7 -7 -6 -7 -8 -7 -8 -8 -8 -8 -8 -8 -8 -7 -6 -6 -5 -5 -5 -5 -5 -5 -5 -5 -5 -5 -5 -5 -5
-22 -22 -23 -17 -16 -16 -15 -15 -14 -13 -12 -12 -9 -7 -8 -7 -7 -7 -7 -7 -7 -7 -8 -8 -8 -8 -8 -8 -8 -7 -6 -6 -5 -5 -5 -5 -5 -5 -5 -5 -5 -5 -5 -5
-23 -23 -22 -18 -16 -16 -15 -14 -14 -13 -12 -12 -9 -8 -8 -8 -7 -7 -7 -7 -7 -7 -8 -8 -8 -8 -8 -8 -8 -8 -7 -6 -5 -5 -5 -5 -5 -5 -5 -5 -5 -6 -6 -5
-23 -23 -21 -20 -17 -16 -16 -15 -14 -13 -12 -12 -9 -8 -8 -9 -8 -7 -7 -7 -7 -7 -7 -7 -8 -8 -8 -8 -8 -8 -7 -7 -6 -6 -5 -5 -5 -5 -6 -6 -6 -6 -5 -5
-23 -22 -20 -19 -16 -17 -17 -15 -13 -12 -12 -10 -10 -9 -8 -8 -8 -7 -7 -7 -7 -7 -7 -7 -8 -8 -8 -8 -8 -8 -8 -8 -7 -6 -6 -5 -5 -5 -6 -6 -6 -6 -5 -5
-21 -21 -19 -18 -16 -17 -17 -14 -13 -12 -12 -10 -10 -9 -9 -8 -8 -8 -8 -7 -7 -7 -7 -7 -8 -8 -8 -8 -8 -8 -8 -8 -7 -7 -6 -6 -5 -6 -6 -6 -6 -6 -6 -6
-20 -19 -18 -16 -17 -15 -16 -15 -14 -13 -11 -9 -9 -9 -9 -8 -7 -8 -8 -7 -6 -7 -7 -7 -7 -8 -8 -8 -8 -8 -8 -8 -8 -7 -6 -6 -6 -6 -6 -6 -6 -6 -7 -7
-19 -18 -17 -16 -16 -14 -15 -15 -14 -13 -11 -9 -10 -10 -9 -9 -8 -9 -9 -7 -7 -6 -6 -6 -7 -7 -8 -8 -8 -7 -8 -8 -7 -7 -7 -7 -6 -6 -6 -7 -7 -7 -7 -7
-18 -18 -17 -16 -15 -13 -15 -14 -14 -12 -10 -10 -10 -10 -9 -9 -9 -9 -9 -8 -7 -7 -7 -7 -7 -7 -8 -8 -7 -7 -9 -8 -7 -8 -8 -8 -8 -8 -8 -8 -8 -8 -8 -8
-17 -16 -16 -15 -14 -14 -14 -13 -13 -12 -11 -11 -11 -10 -10 -9 -9 -9 -8 -8 -8 -7 -6 -6 -7 -7 -7 -8 -8 -8 -8 -8 -8 -8 -8 -8 -9 -9 -9 -9 -9 -9 -8 -9
-16 -16 -15 -14 -13 -14 -14 -13 -13 -12 -12 -11 -11 -10 -10 -9 -9 -9 -8 -8 -8 -8 -8 -7 -7 -7 -8 -8 -8 -8 -8 -8 -9 -8 -8 -9 -9 -9 -9 -9 -8 -9 -9 -9
-16 -16 -15 -15 -14 -14 -14 -12 -13 -12 -12 -11 -11 -10 -10 -9 -9 -9 -8 -8 -8 -8 -8 -8 -8 -8 -8 -8 -9 -8 -8 -8 -8 -8 -9 -9 -8 -9 -9 -8 -9 -9 -9 -9
-17 -15 -16 -16 -14 -14 -14 -13 -13 -12 -11 -11 -11 -11 -10 -10 -9 -9 -9 -9 -8 -8 -8 -8 -8 -8 -8 -8 -8 -8 -8 -8 -8 -8 -8 -8 -8 -8 -8 -9 -9 -9 -8 -9
-17 -16 -15 -15 -15 -14 -14 -12 -13 -12 -12 -12 -11 -11 -11 -10 -10 -10 -10 -9 -9 -9 -9 -9 -8 -8 -8 -8 -8 -8 -8 -9 -9 -9 -8 -8 -8 -8 -8 -9 -8 -8 -8 -9
-18 -17 -16 -15 -15 -14 -14 -13 -13 -13 -12 -12 -12 -12 -11 -10 -10 -10 -10 -10 -10 -9 -10 -10 -9 -9 -9 -8 -8 -8 -8 -8 -9 -9 -9 -8 -10 -10 -10 -9 -8 -9 -10 -9
-19 -18 -18 -16 -15 -15 -14 -14 -13 -13 -13 -11 -11 -12 -12 -11 -11 -10 -10 -11 -11 -10 -10 -10 -10 -10 -9 -9 -9 -8 -8 -8 -9 -9 -10 -9 -9 -9 -9 -9 -10 -10 -10 -9
-19 -18 -18 -17 -17 -17 -15 -14 -14 -14 -14 -13 -13 -12 -12 -12 -11 -10 -11 -10 -11 -12 -11 -11 -10 -10 -10 -10 -9 -10 -9 -9 -9 -9 -9 -10 -10 -9 -9 -10 -10 -10 -10 -9
-19 -19 -19 -18 -17 -17 -16 -16 -15 -15 -14 -14 -13 -13 -12 -12 -12 -11 -12 -11 -11 -11 -10 -11 -11 -11 -11 -10 -10 -9 -10 -10 -9 -10 -9 -9 -10 -10 -11 -11 -10 -10 -9 -9
-20 -19 -19 -19 -19 -18 -17 -17 -16 -15 -14 -14 -14 -13 -12 -12 -12 -11 -11 -12 -11 -12 -11 -11 -11 -11 -11 -11 -11 -11 -9 -9 -10 -10 -10 -10 -10 -10 -11 -10 -10 -9 -10 -9
-20 -20 -19 -19 -19 -19 -18 -18 -17 -16 -16 -15 -14 -14 -13 -12 -12 -12 -12 -12 -12 -12 -12 -12 -11 -11 -11 -11 -10 -10 -10 -10 -10 -10 -10 -10 -9 -10 -10 -10 -10 -10 -9 -9
-21 -21 -20 -20 -20 -19 -19 -19 -18 -18 -17 -16 -15 -15 -14 -14 -13 -13 -12 -12 -12 -12 -12 -11 -11 -12 -11 -11 -11 -11 -11 -11 -11 -10 -10 -10 -10 -9 -10 -10 -10 -10 -9 -9
-22 -22 -21 -21 -21 -20 -20 -19 -19 -18 -18 -18 -17 -16 -15 -14 -14 -13 -13 -12 -12 -12 -12 -11 -11 -11 -11 -12 -12 -12 -11 -11 -10 -11 -11 -11 -11 -11 -11 -10 -10 -10 -10 -10
-22 -22 -22 -22 -22 -21 -21 -20 -20 -19 -19 -18 -18 -18 -17 -16 -15 -15 -15 -14 -13 -13 -12 -11 -11 -11 -11 -11 -11 -11 -11 -11 -10 -11 -11 -11 -10 -10 -11 -10 -11 -11 -11 -10
-22 -22 -22 -22 -22 -22 -22 -21 -21 -20 -20 -19 -19 -18 -18 -18 -17 -17 -16 -16 -15 -16 -15 -14 -13 -13 -12 -12 -12 -11 -11 -11 -11 -11 -10 -11 -11 -10 -11 -11 -11 -11 -11 -12
-23 -23 -23 -22 -22 -22 -22 -22 -22 -21 -21 -20 -20 -20 -19 -19 -18 -17 -17 -17 -16 -16 -16 -16 -15 -15 -15 -14 -14 -13 -13 -12 -12 -11 -11 -11 -11 -11 -11 -10 -10 -11 -12 -11